<?xml version="1.0" encoding="UTF-8" standalone="no" ?>
<gpx xmlns="http://www.topografix.com/GPX/1/1" xmlns:xsi="http://www.w3.org/2001/XMLSchema-instance" xsi:schemaLocation="http://www.topografix.com/GPX/1/1 http://www.topografix.com/GPX/1/1/gpx.xsd" version="1.1" creator="VisuGPX - https://www.visugpx.com">
  <metadata>
    <name>Randonnée du 16/07/2020 à 09:14</name>
    <desc><![CDATA[De Caen à Cabourg par la Véloroute]]></desc>
  </metadata>
  <trk>
    <name><![CDATA[Randonnée du 16/07/2020 à 09:14]]></name>
    <trkseg>
      <trkpt lat="49.18554" lon="-0.33378">
        <ele>4</ele>
        <time>2021-10-06T20:27:37+02:00</time>
      </trkpt>
      <trkpt lat="49.18544" lon="-0.33346">
        <ele>4</ele>
        <time>2021-10-06T20:27:37+02:00</time>
      </trkpt>
      <trkpt lat="49.24207" lon="-0.27359">
        <ele>4</ele>
        <time>2021-10-06T20:27:37+02:00</time>
      </trkpt>
      <trkpt lat="49.24201" lon="-0.27326">
        <ele>5</ele>
        <time>2021-10-06T20:27:37+02:00</time>
      </trkpt>
      <trkpt lat="49.24185" lon="-0.27296">
        <ele>4</ele>
        <time>2021-10-06T20:27:37+02:00</time>
      </trkpt>
      <trkpt lat="49.24174" lon="-0.27265">
        <ele>4</ele>
        <time>2021-10-06T20:27:37+02:00</time>
      </trkpt>
      <trkpt lat="49.24163" lon="-0.27233">
        <ele>4</ele>
        <time>2021-10-06T20:27:37+02:00</time>
      </trkpt>
      <trkpt lat="49.24151" lon="-0.27202">
        <ele>5</ele>
        <time>2021-10-06T20:27:37+02:00</time>
      </trkpt>
      <trkpt lat="49.24141" lon="-0.27168">
        <ele>5</ele>
        <time>2021-10-06T20:27:37+02:00</time>
      </trkpt>
      <trkpt lat="49.24133" lon="-0.27133">
        <ele>4</ele>
        <time>2021-10-06T20:27:37+02:00</time>
      </trkpt>
      <trkpt lat="49.24124" lon="-0.27097">
        <ele>4</ele>
        <time>2021-10-06T20:27:37+02:00</time>
      </trkpt>
      <trkpt lat="49.24115" lon="-0.27061">
        <ele>4</ele>
        <time>2021-10-06T20:27:37+02:00</time>
      </trkpt>
      <trkpt lat="49.24106" lon="-0.27026">
        <ele>4</ele>
        <time>2021-10-06T20:27:37+02:00</time>
      </trkpt>
      <trkpt lat="49.24099" lon="-0.26992">
        <ele>4</ele>
        <time>2021-10-06T20:27:37+02:00</time>
      </trkpt>
      <trkpt lat="49.2409" lon="-0.26959">
        <ele>4</ele>
        <time>2021-10-06T20:27:37+02:00</time>
      </trkpt>
      <trkpt lat="49.24074" lon="-0.26934">
        <ele>5</ele>
        <time>2021-10-06T20:27:37+02:00</time>
      </trkpt>
      <trkpt lat="49.24076" lon="-0.26897">
        <ele>5</ele>
        <time>2021-10-06T20:27:37+02:00</time>
      </trkpt>
      <trkpt lat="49.24072" lon="-0.26863">
        <ele>4</ele>
        <time>2021-10-06T20:27:37+02:00</time>
      </trkpt>
      <trkpt lat="49.24064" lon="-0.2683">
        <ele>4</ele>
        <time>2021-10-06T20:27:37+02:00</time>
      </trkpt>
      <trkpt lat="49.24055" lon="-0.26791">
        <ele>6</ele>
        <time>2021-10-06T20:27:37+02:00</time>
      </trkpt>
      <trkpt lat="49.24044" lon="-0.26754">
        <ele>5</ele>
        <time>2021-10-06T20:27:37+02:00</time>
      </trkpt>
      <trkpt lat="49.24036" lon="-0.26714">
        <ele>3</ele>
        <time>2021-10-06T20:27:37+02:00</time>
      </trkpt>
      <trkpt lat="49.24027" lon="-0.26678">
        <ele>2</ele>
        <time>2021-10-06T20:27:37+02:00</time>
      </trkpt>
      <trkpt lat="49.24018" lon="-0.26642">
        <ele>3</ele>
        <time>2021-10-06T20:27:37+02:00</time>
      </trkpt>
      <trkpt lat="49.24019" lon="-0.26606">
        <ele>4</ele>
        <time>2021-10-06T20:27:37+02:00</time>
      </trkpt>
      <trkpt lat="49.24043" lon="-0.2659">
        <ele>3</ele>
        <time>2021-10-06T20:27:37+02:00</time>
      </trkpt>
      <trkpt lat="49.24061" lon="-0.26564">
        <ele>2</ele>
        <time>2021-10-06T20:27:37+02:00</time>
      </trkpt>
      <trkpt lat="49.24082" lon="-0.26546">
        <ele>2</ele>
        <time>2021-10-06T20:27:37+02:00</time>
      </trkpt>
      <trkpt lat="49.24096" lon="-0.26513">
        <ele>2</ele>
        <time>2021-10-06T20:27:37+02:00</time>
      </trkpt>
      <trkpt lat="49.24119" lon="-0.26493">
        <ele>2</ele>
        <time>2021-10-06T20:27:37+02:00</time>
      </trkpt>
      <trkpt lat="49.24142" lon="-0.26474">
        <ele>2</ele>
        <time>2021-10-06T20:27:37+02:00</time>
      </trkpt>
      <trkpt lat="49.24166" lon="-0.26454">
        <ele>2</ele>
        <time>2021-10-06T20:27:37+02:00</time>
      </trkpt>
      <trkpt lat="49.24189" lon="-0.26435">
        <ele>2</ele>
        <time>2021-10-06T20:27:37+02:00</time>
      </trkpt>
      <trkpt lat="49.24209" lon="-0.26418">
        <ele>2</ele>
        <time>2021-10-06T20:27:37+02:00</time>
      </trkpt>
      <trkpt lat="49.24231" lon="-0.26399">
        <ele>2</ele>
        <time>2021-10-06T20:27:37+02:00</time>
      </trkpt>
      <trkpt lat="49.24251" lon="-0.26382">
        <ele>2</ele>
        <time>2021-10-06T20:27:37+02:00</time>
      </trkpt>
      <trkpt lat="49.24272" lon="-0.26364">
        <ele>2</ele>
        <time>2021-10-06T20:27:37+02:00</time>
      </trkpt>
      <trkpt lat="49.24294" lon="-0.26346">
        <ele>2</ele>
        <time>2021-10-06T20:27:37+02:00</time>
      </trkpt>
      <trkpt lat="49.24315" lon="-0.26328">
        <ele>2</ele>
        <time>2021-10-06T20:27:37+02:00</time>
      </trkpt>
      <trkpt lat="49.24338" lon="-0.26309">
        <ele>2</ele>
        <time>2021-10-06T20:27:37+02:00</time>
      </trkpt>
      <trkpt lat="49.24365" lon="-0.26308">
        <ele>2</ele>
        <time>2021-10-06T20:27:37+02:00</time>
      </trkpt>
      <trkpt lat="49.24386" lon="-0.2629">
        <ele>2</ele>
        <time>2021-10-06T20:27:37+02:00</time>
      </trkpt>
      <trkpt lat="49.24409" lon="-0.26271">
        <ele>2</ele>
        <time>2021-10-06T20:27:37+02:00</time>
      </trkpt>
      <trkpt lat="49.2443" lon="-0.26253">
        <ele>2</ele>
        <time>2021-10-06T20:27:37+02:00</time>
      </trkpt>
      <trkpt lat="49.24441" lon="-0.26221">
        <ele>2</ele>
        <time>2021-10-06T20:27:37+02:00</time>
      </trkpt>
      <trkpt lat="49.24465" lon="-0.26202">
        <ele>2</ele>
        <time>2021-10-06T20:27:37+02:00</time>
      </trkpt>
      <trkpt lat="49.24486" lon="-0.26184">
        <ele>2</ele>
        <time>2021-10-06T20:27:37+02:00</time>
      </trkpt>
      <trkpt lat="49.24508" lon="-0.26165">
        <ele>2</ele>
        <time>2021-10-06T20:27:37+02:00</time>
      </trkpt>
      <trkpt lat="49.2453" lon="-0.26146">
        <ele>2</ele>
        <time>2021-10-06T20:27:37+02:00</time>
      </trkpt>
      <trkpt lat="49.2455" lon="-0.26129">
        <ele>2</ele>
        <time>2021-10-06T20:27:37+02:00</time>
      </trkpt>
      <trkpt lat="49.24575" lon="-0.26129">
        <ele>2</ele>
        <time>2021-10-06T20:27:37+02:00</time>
      </trkpt>
      <trkpt lat="49.24596" lon="-0.26112">
        <ele>3</ele>
        <time>2021-10-06T20:27:37+02:00</time>
      </trkpt>
      <trkpt lat="49.24617" lon="-0.26095">
        <ele>3</ele>
        <time>2021-10-06T20:27:37+02:00</time>
      </trkpt>
      <trkpt lat="49.24637" lon="-0.26075">
        <ele>3</ele>
        <time>2021-10-06T20:27:37+02:00</time>
      </trkpt>
      <trkpt lat="49.24657" lon="-0.26057">
        <ele>3</ele>
        <time>2021-10-06T20:27:37+02:00</time>
      </trkpt>
      <trkpt lat="49.24679" lon="-0.26039">
        <ele>3</ele>
        <time>2021-10-06T20:27:37+02:00</time>
      </trkpt>
      <trkpt lat="49.24701" lon="-0.26021">
        <ele>2</ele>
        <time>2021-10-06T20:27:37+02:00</time>
      </trkpt>
      <trkpt lat="49.24722" lon="-0.26003">
        <ele>2</ele>
        <time>2021-10-06T20:27:37+02:00</time>
      </trkpt>
      <trkpt lat="49.24742" lon="-0.25987">
        <ele>2</ele>
        <time>2021-10-06T20:27:37+02:00</time>
      </trkpt>
      <trkpt lat="49.24754" lon="-0.25955">
        <ele>2</ele>
        <time>2021-10-06T20:27:37+02:00</time>
      </trkpt>
      <trkpt lat="49.24777" lon="-0.25935">
        <ele>2</ele>
        <time>2021-10-06T20:27:37+02:00</time>
      </trkpt>
      <trkpt lat="49.24799" lon="-0.25917">
        <ele>2</ele>
        <time>2021-10-06T20:27:37+02:00</time>
      </trkpt>
      <trkpt lat="49.2482" lon="-0.25899">
        <ele>2</ele>
        <time>2021-10-06T20:27:37+02:00</time>
      </trkpt>
      <trkpt lat="49.24843" lon="-0.25879">
        <ele>2</ele>
        <time>2021-10-06T20:27:37+02:00</time>
      </trkpt>
      <trkpt lat="49.24873" lon="-0.25877">
        <ele>2</ele>
        <time>2021-10-06T20:27:37+02:00</time>
      </trkpt>
      <trkpt lat="49.24896" lon="-0.25855">
        <ele>2</ele>
        <time>2021-10-06T20:27:37+02:00</time>
      </trkpt>
      <trkpt lat="49.24916" lon="-0.25837">
        <ele>3</ele>
        <time>2021-10-06T20:27:37+02:00</time>
      </trkpt>
      <trkpt lat="49.24928" lon="-0.25806">
        <ele>3</ele>
        <time>2021-10-06T20:27:37+02:00</time>
      </trkpt>
      <trkpt lat="49.24952" lon="-0.25786">
        <ele>3</ele>
        <time>2021-10-06T20:27:37+02:00</time>
      </trkpt>
      <trkpt lat="49.24973" lon="-0.25768">
        <ele>2</ele>
        <time>2021-10-06T20:27:37+02:00</time>
      </trkpt>
      <trkpt lat="49.24994" lon="-0.2575">
        <ele>2</ele>
        <time>2021-10-06T20:27:37+02:00</time>
      </trkpt>
      <trkpt lat="49.25016" lon="-0.25731">
        <ele>2</ele>
        <time>2021-10-06T20:27:37+02:00</time>
      </trkpt>
      <trkpt lat="49.25036" lon="-0.25714">
        <ele>2</ele>
        <time>2021-10-06T20:27:37+02:00</time>
      </trkpt>
      <trkpt lat="49.2506" lon="-0.25715">
        <ele>2</ele>
        <time>2021-10-06T20:27:37+02:00</time>
      </trkpt>
      <trkpt lat="49.25073" lon="-0.25683">
        <ele>2</ele>
        <time>2021-10-06T20:27:37+02:00</time>
      </trkpt>
      <trkpt lat="49.25096" lon="-0.25663">
        <ele>3</ele>
        <time>2021-10-06T20:27:37+02:00</time>
      </trkpt>
      <trkpt lat="49.25118" lon="-0.25645">
        <ele>3</ele>
        <time>2021-10-06T20:27:37+02:00</time>
      </trkpt>
      <trkpt lat="49.25142" lon="-0.25625">
        <ele>3</ele>
        <time>2021-10-06T20:27:37+02:00</time>
      </trkpt>
      <trkpt lat="49.25165" lon="-0.25605">
        <ele>3</ele>
        <time>2021-10-06T20:27:37+02:00</time>
      </trkpt>
      <trkpt lat="49.25185" lon="-0.25588">
        <ele>3</ele>
        <time>2021-10-06T20:27:37+02:00</time>
      </trkpt>
      <trkpt lat="49.25212" lon="-0.25591">
        <ele>3</ele>
        <time>2021-10-06T20:27:37+02:00</time>
      </trkpt>
      <trkpt lat="49.25234" lon="-0.25574">
        <ele>3</ele>
        <time>2021-10-06T20:27:37+02:00</time>
      </trkpt>
      <trkpt lat="49.25254" lon="-0.25556">
        <ele>3</ele>
        <time>2021-10-06T20:27:37+02:00</time>
      </trkpt>
      <trkpt lat="49.25278" lon="-0.25536">
        <ele>3</ele>
        <time>2021-10-06T20:27:37+02:00</time>
      </trkpt>
      <trkpt lat="49.253" lon="-0.25518">
        <ele>3</ele>
        <time>2021-10-06T20:27:37+02:00</time>
      </trkpt>
      <trkpt lat="49.25324" lon="-0.25497">
        <ele>3</ele>
        <time>2021-10-06T20:27:37+02:00</time>
      </trkpt>
      <trkpt lat="49.25345" lon="-0.25478">
        <ele>3</ele>
        <time>2021-10-06T20:27:37+02:00</time>
      </trkpt>
      <trkpt lat="49.25369" lon="-0.25459">
        <ele>3</ele>
        <time>2021-10-06T20:27:37+02:00</time>
      </trkpt>
      <trkpt lat="49.25392" lon="-0.2544">
        <ele>2</ele>
        <time>2021-10-06T20:27:37+02:00</time>
      </trkpt>
      <trkpt lat="49.25416" lon="-0.25422">
        <ele>2</ele>
        <time>2021-10-06T20:27:37+02:00</time>
      </trkpt>
      <trkpt lat="49.25438" lon="-0.25403">
        <ele>2</ele>
        <time>2021-10-06T20:27:37+02:00</time>
      </trkpt>
      <trkpt lat="49.25461" lon="-0.25378">
        <ele>2</ele>
        <time>2021-10-06T20:27:37+02:00</time>
      </trkpt>
      <trkpt lat="49.25482" lon="-0.25363">
        <ele>2</ele>
        <time>2021-10-06T20:27:37+02:00</time>
      </trkpt>
      <trkpt lat="49.25508" lon="-0.25344">
        <ele>2</ele>
        <time>2021-10-06T20:27:37+02:00</time>
      </trkpt>
      <trkpt lat="49.25511" lon="-0.2531">
        <ele>2</ele>
        <time>2021-10-06T20:27:37+02:00</time>
      </trkpt>
      <trkpt lat="49.25534" lon="-0.25289">
        <ele>2</ele>
        <time>2021-10-06T20:27:37+02:00</time>
      </trkpt>
      <trkpt lat="49.25557" lon="-0.2527">
        <ele>2</ele>
        <time>2021-10-06T20:27:37+02:00</time>
      </trkpt>
      <trkpt lat="49.25578" lon="-0.25252">
        <ele>2</ele>
        <time>2021-10-06T20:27:37+02:00</time>
      </trkpt>
      <trkpt lat="49.25602" lon="-0.25232">
        <ele>2</ele>
        <time>2021-10-06T20:27:37+02:00</time>
      </trkpt>
      <trkpt lat="49.25624" lon="-0.25213">
        <ele>2</ele>
        <time>2021-10-06T20:27:37+02:00</time>
      </trkpt>
      <trkpt lat="49.25646" lon="-0.25194">
        <ele>2</ele>
        <time>2021-10-06T20:27:37+02:00</time>
      </trkpt>
      <trkpt lat="49.25667" lon="-0.25176">
        <ele>2</ele>
        <time>2021-10-06T20:27:37+02:00</time>
      </trkpt>
      <trkpt lat="49.25688" lon="-0.25158">
        <ele>2</ele>
        <time>2021-10-06T20:27:37+02:00</time>
      </trkpt>
      <trkpt lat="49.25711" lon="-0.25139">
        <ele>2</ele>
        <time>2021-10-06T20:27:37+02:00</time>
      </trkpt>
      <trkpt lat="49.25732" lon="-0.25121">
        <ele>2</ele>
        <time>2021-10-06T20:27:37+02:00</time>
      </trkpt>
      <trkpt lat="49.25755" lon="-0.25101">
        <ele>2</ele>
        <time>2021-10-06T20:27:37+02:00</time>
      </trkpt>
      <trkpt lat="49.25778" lon="-0.25115">
        <ele>2</ele>
        <time>2021-10-06T20:27:37+02:00</time>
      </trkpt>
      <trkpt lat="49.258" lon="-0.25094">
        <ele>2</ele>
        <time>2021-10-06T20:27:37+02:00</time>
      </trkpt>
      <trkpt lat="49.2582" lon="-0.25075">
        <ele>2</ele>
        <time>2021-10-06T20:27:37+02:00</time>
      </trkpt>
      <trkpt lat="49.25843" lon="-0.2505">
        <ele>2</ele>
        <time>2021-10-06T20:27:37+02:00</time>
      </trkpt>
      <trkpt lat="49.25863" lon="-0.25032">
        <ele>2</ele>
        <time>2021-10-06T20:27:37+02:00</time>
      </trkpt>
      <trkpt lat="49.25875" lon="-0.24999">
        <ele>2</ele>
        <time>2021-10-06T20:27:37+02:00</time>
      </trkpt>
      <trkpt lat="49.25896" lon="-0.2498">
        <ele>2</ele>
        <time>2021-10-06T20:27:37+02:00</time>
      </trkpt>
      <trkpt lat="49.2592" lon="-0.2496">
        <ele>2</ele>
        <time>2021-10-06T20:27:37+02:00</time>
      </trkpt>
      <trkpt lat="49.25943" lon="-0.24941">
        <ele>2</ele>
        <time>2021-10-06T20:27:37+02:00</time>
      </trkpt>
      <trkpt lat="49.25966" lon="-0.24921">
        <ele>2</ele>
        <time>2021-10-06T20:27:37+02:00</time>
      </trkpt>
      <trkpt lat="49.2599" lon="-0.24902">
        <ele>2</ele>
        <time>2021-10-06T20:27:37+02:00</time>
      </trkpt>
      <trkpt lat="49.26013" lon="-0.24908">
        <ele>2</ele>
        <time>2021-10-06T20:27:37+02:00</time>
      </trkpt>
      <trkpt lat="49.26037" lon="-0.24889">
        <ele>2</ele>
        <time>2021-10-06T20:27:37+02:00</time>
      </trkpt>
      <trkpt lat="49.2606" lon="-0.24869">
        <ele>2</ele>
        <time>2021-10-06T20:27:37+02:00</time>
      </trkpt>
      <trkpt lat="49.26079" lon="-0.24851">
        <ele>2</ele>
        <time>2021-10-06T20:27:37+02:00</time>
      </trkpt>
      <trkpt lat="49.261" lon="-0.2483">
        <ele>2</ele>
        <time>2021-10-06T20:27:37+02:00</time>
      </trkpt>
      <trkpt lat="49.26121" lon="-0.24811">
        <ele>2</ele>
        <time>2021-10-06T20:27:37+02:00</time>
      </trkpt>
      <trkpt lat="49.26144" lon="-0.24792">
        <ele>2</ele>
        <time>2021-10-06T20:27:37+02:00</time>
      </trkpt>
      <trkpt lat="49.26164" lon="-0.24774">
        <ele>2</ele>
        <time>2021-10-06T20:27:37+02:00</time>
      </trkpt>
      <trkpt lat="49.26186" lon="-0.24758">
        <ele>2</ele>
        <time>2021-10-06T20:27:37+02:00</time>
      </trkpt>
      <trkpt lat="49.26207" lon="-0.24742">
        <ele>2</ele>
        <time>2021-10-06T20:27:37+02:00</time>
      </trkpt>
      <trkpt lat="49.2623" lon="-0.24725">
        <ele>2</ele>
        <time>2021-10-06T20:27:37+02:00</time>
      </trkpt>
      <trkpt lat="49.26253" lon="-0.24706">
        <ele>2</ele>
        <time>2021-10-06T20:27:37+02:00</time>
      </trkpt>
      <trkpt lat="49.26276" lon="-0.24689">
        <ele>2</ele>
        <time>2021-10-06T20:27:37+02:00</time>
      </trkpt>
      <trkpt lat="49.26298" lon="-0.24668">
        <ele>2</ele>
        <time>2021-10-06T20:27:37+02:00</time>
      </trkpt>
      <trkpt lat="49.26318" lon="-0.2465">
        <ele>2</ele>
        <time>2021-10-06T20:27:37+02:00</time>
      </trkpt>
      <trkpt lat="49.26338" lon="-0.24628">
        <ele>2</ele>
        <time>2021-10-06T20:27:37+02:00</time>
      </trkpt>
      <trkpt lat="49.26362" lon="-0.24609">
        <ele>2</ele>
        <time>2021-10-06T20:27:37+02:00</time>
      </trkpt>
      <trkpt lat="49.26386" lon="-0.2459">
        <ele>2</ele>
        <time>2021-10-06T20:27:37+02:00</time>
      </trkpt>
      <trkpt lat="49.26408" lon="-0.2457">
        <ele>2</ele>
        <time>2021-10-06T20:27:37+02:00</time>
      </trkpt>
      <trkpt lat="49.26432" lon="-0.24552">
        <ele>2</ele>
        <time>2021-10-06T20:27:37+02:00</time>
      </trkpt>
      <trkpt lat="49.26454" lon="-0.24531">
        <ele>2</ele>
        <time>2021-10-06T20:27:37+02:00</time>
      </trkpt>
      <trkpt lat="49.26474" lon="-0.24513">
        <ele>2</ele>
        <time>2021-10-06T20:27:37+02:00</time>
      </trkpt>
      <trkpt lat="49.26498" lon="-0.24494">
        <ele>2</ele>
        <time>2021-10-06T20:27:37+02:00</time>
      </trkpt>
      <trkpt lat="49.26521" lon="-0.24473">
        <ele>2</ele>
        <time>2021-10-06T20:27:37+02:00</time>
      </trkpt>
      <trkpt lat="49.26544" lon="-0.24454">
        <ele>2</ele>
        <time>2021-10-06T20:27:37+02:00</time>
      </trkpt>
      <trkpt lat="49.26564" lon="-0.24438">
        <ele>2</ele>
        <time>2021-10-06T20:27:37+02:00</time>
      </trkpt>
      <trkpt lat="49.26585" lon="-0.24421">
        <ele>2</ele>
        <time>2021-10-06T20:27:37+02:00</time>
      </trkpt>
      <trkpt lat="49.26592" lon="-0.24384">
        <ele>3</ele>
        <time>2021-10-06T20:27:37+02:00</time>
      </trkpt>
      <trkpt lat="49.2658" lon="-0.24352">
        <ele>3</ele>
        <time>2021-10-06T20:27:37+02:00</time>
      </trkpt>
      <trkpt lat="49.26568" lon="-0.2432">
        <ele>3</ele>
        <time>2021-10-06T20:27:37+02:00</time>
      </trkpt>
      <trkpt lat="49.26553" lon="-0.24285">
        <ele>3</ele>
        <time>2021-10-06T20:27:37+02:00</time>
      </trkpt>
      <trkpt lat="49.26541" lon="-0.2425">
        <ele>4</ele>
        <time>2021-10-06T20:27:37+02:00</time>
      </trkpt>
      <trkpt lat="49.26534" lon="-0.24217">
        <ele>5</ele>
        <time>2021-10-06T20:27:37+02:00</time>
      </trkpt>
      <trkpt lat="49.26529" lon="-0.24175">
        <ele>6</ele>
        <time>2021-10-06T20:27:37+02:00</time>
      </trkpt>
      <trkpt lat="49.26521" lon="-0.24141">
        <ele>5</ele>
        <time>2021-10-06T20:27:37+02:00</time>
      </trkpt>
      <trkpt lat="49.26516" lon="-0.24101">
        <ele>6</ele>
        <time>2021-10-06T20:27:37+02:00</time>
      </trkpt>
      <trkpt lat="49.26516" lon="-0.2406">
        <ele>6</ele>
        <time>2021-10-06T20:27:37+02:00</time>
      </trkpt>
      <trkpt lat="49.26514" lon="-0.24021">
        <ele>5</ele>
        <time>2021-10-06T20:27:37+02:00</time>
      </trkpt>
      <trkpt lat="49.2651" lon="-0.2398">
        <ele>5</ele>
        <time>2021-10-06T20:27:37+02:00</time>
      </trkpt>
      <trkpt lat="49.26509" lon="-0.23941">
        <ele>5</ele>
        <time>2021-10-06T20:27:37+02:00</time>
      </trkpt>
      <trkpt lat="49.26504" lon="-0.23903">
        <ele>5</ele>
        <time>2021-10-06T20:27:37+02:00</time>
      </trkpt>
      <trkpt lat="49.26501" lon="-0.23864">
        <ele>4</ele>
        <time>2021-10-06T20:27:37+02:00</time>
      </trkpt>
      <trkpt lat="49.26499" lon="-0.23826">
        <ele>4</ele>
        <time>2021-10-06T20:27:37+02:00</time>
      </trkpt>
      <trkpt lat="49.26494" lon="-0.23792">
        <ele>4</ele>
        <time>2021-10-06T20:27:37+02:00</time>
      </trkpt>
      <trkpt lat="49.2649" lon="-0.2375">
        <ele>5</ele>
        <time>2021-10-06T20:27:37+02:00</time>
      </trkpt>
      <trkpt lat="49.26485" lon="-0.2371">
        <ele>5</ele>
        <time>2021-10-06T20:27:37+02:00</time>
      </trkpt>
      <trkpt lat="49.26481" lon="-0.23672">
        <ele>5</ele>
        <time>2021-10-06T20:27:37+02:00</time>
      </trkpt>
      <trkpt lat="49.26473" lon="-0.23604">
        <ele>4</ele>
        <time>2021-10-06T20:27:37+02:00</time>
      </trkpt>
      <trkpt lat="49.2647" lon="-0.23565">
        <ele>4</ele>
        <time>2021-10-06T20:27:37+02:00</time>
      </trkpt>
      <trkpt lat="49.26465" lon="-0.23524">
        <ele>4</ele>
        <time>2021-10-06T20:27:37+02:00</time>
      </trkpt>
      <trkpt lat="49.26461" lon="-0.23486">
        <ele>5</ele>
        <time>2021-10-06T20:27:37+02:00</time>
      </trkpt>
      <trkpt lat="49.26456" lon="-0.23447">
        <ele>5</ele>
        <time>2021-10-06T20:27:37+02:00</time>
      </trkpt>
      <trkpt lat="49.26452" lon="-0.23413">
        <ele>5</ele>
        <time>2021-10-06T20:27:37+02:00</time>
      </trkpt>
      <trkpt lat="49.26447" lon="-0.23372">
        <ele>5</ele>
        <time>2021-10-06T20:27:37+02:00</time>
      </trkpt>
      <trkpt lat="49.26444" lon="-0.23331">
        <ele>5</ele>
        <time>2021-10-06T20:27:37+02:00</time>
      </trkpt>
      <trkpt lat="49.26446" lon="-0.23292">
        <ele>5</ele>
        <time>2021-10-06T20:27:37+02:00</time>
      </trkpt>
      <trkpt lat="49.26448" lon="-0.23256">
        <ele>5</ele>
        <time>2021-10-06T20:27:37+02:00</time>
      </trkpt>
      <trkpt lat="49.2645" lon="-0.2322">
        <ele>5</ele>
        <time>2021-10-06T20:27:37+02:00</time>
      </trkpt>
      <trkpt lat="49.26457" lon="-0.23185">
        <ele>5</ele>
        <time>2021-10-06T20:27:37+02:00</time>
      </trkpt>
      <trkpt lat="49.26455" lon="-0.23147">
        <ele>5</ele>
        <time>2021-10-06T20:27:37+02:00</time>
      </trkpt>
      <trkpt lat="49.26468" lon="-0.23119">
        <ele>5</ele>
        <time>2021-10-06T20:27:37+02:00</time>
      </trkpt>
      <trkpt lat="49.26479" lon="-0.23086">
        <ele>5</ele>
        <time>2021-10-06T20:27:37+02:00</time>
      </trkpt>
      <trkpt lat="49.26473" lon="-0.23051">
        <ele>5</ele>
        <time>2021-10-06T20:27:37+02:00</time>
      </trkpt>
      <trkpt lat="49.26471" lon="-0.23011">
        <ele>5</ele>
        <time>2021-10-06T20:27:37+02:00</time>
      </trkpt>
      <trkpt lat="49.26468" lon="-0.22972">
        <ele>5</ele>
        <time>2021-10-06T20:27:37+02:00</time>
      </trkpt>
      <trkpt lat="49.26468" lon="-0.22932">
        <ele>5</ele>
        <time>2021-10-06T20:27:37+02:00</time>
      </trkpt>
      <trkpt lat="49.26462" lon="-0.22898">
        <ele>4</ele>
        <time>2021-10-06T20:27:37+02:00</time>
      </trkpt>
      <trkpt lat="49.26463" lon="-0.22861">
        <ele>4</ele>
        <time>2021-10-06T20:27:37+02:00</time>
      </trkpt>
      <trkpt lat="49.26465" lon="-0.22822">
        <ele>5</ele>
        <time>2021-10-06T20:27:37+02:00</time>
      </trkpt>
      <trkpt lat="49.2647" lon="-0.22787">
        <ele>5</ele>
        <time>2021-10-06T20:27:37+02:00</time>
      </trkpt>
      <trkpt lat="49.26475" lon="-0.22745">
        <ele>5</ele>
        <time>2021-10-06T20:27:37+02:00</time>
      </trkpt>
      <trkpt lat="49.2648" lon="-0.22709">
        <ele>5</ele>
        <time>2021-10-06T20:27:37+02:00</time>
      </trkpt>
      <trkpt lat="49.26484" lon="-0.22671">
        <ele>4</ele>
        <time>2021-10-06T20:27:37+02:00</time>
      </trkpt>
      <trkpt lat="49.2649" lon="-0.22632">
        <ele>4</ele>
        <time>2021-10-06T20:27:37+02:00</time>
      </trkpt>
      <trkpt lat="49.26497" lon="-0.22593">
        <ele>5</ele>
        <time>2021-10-06T20:27:37+02:00</time>
      </trkpt>
      <trkpt lat="49.26502" lon="-0.22553">
        <ele>5</ele>
        <time>2021-10-06T20:27:37+02:00</time>
      </trkpt>
      <trkpt lat="49.26505" lon="-0.22513">
        <ele>5</ele>
        <time>2021-10-06T20:27:37+02:00</time>
      </trkpt>
      <trkpt lat="49.26525" lon="-0.22489">
        <ele>5</ele>
        <time>2021-10-06T20:27:37+02:00</time>
      </trkpt>
      <trkpt lat="49.26525" lon="-0.22452">
        <ele>5</ele>
        <time>2021-10-06T20:27:37+02:00</time>
      </trkpt>
      <trkpt lat="49.26535" lon="-0.22414">
        <ele>5</ele>
        <time>2021-10-06T20:27:37+02:00</time>
      </trkpt>
      <trkpt lat="49.26545" lon="-0.22378">
        <ele>4</ele>
        <time>2021-10-06T20:27:37+02:00</time>
      </trkpt>
      <trkpt lat="49.26555" lon="-0.22348">
        <ele>4</ele>
        <time>2021-10-06T20:27:37+02:00</time>
      </trkpt>
      <trkpt lat="49.26563" lon="-0.22315">
        <ele>4</ele>
        <time>2021-10-06T20:27:37+02:00</time>
      </trkpt>
      <trkpt lat="49.26575" lon="-0.2228">
        <ele>4</ele>
        <time>2021-10-06T20:27:37+02:00</time>
      </trkpt>
      <trkpt lat="49.26588" lon="-0.22247">
        <ele>4</ele>
        <time>2021-10-06T20:27:37+02:00</time>
      </trkpt>
      <trkpt lat="49.26605" lon="-0.2222">
        <ele>4</ele>
        <time>2021-10-06T20:27:37+02:00</time>
      </trkpt>
      <trkpt lat="49.26623" lon="-0.22197">
        <ele>4</ele>
        <time>2021-10-06T20:27:37+02:00</time>
      </trkpt>
      <trkpt lat="49.26642" lon="-0.22172">
        <ele>4</ele>
        <time>2021-10-06T20:27:37+02:00</time>
      </trkpt>
      <trkpt lat="49.26664" lon="-0.22149">
        <ele>4</ele>
        <time>2021-10-06T20:27:37+02:00</time>
      </trkpt>
      <trkpt lat="49.26687" lon="-0.2213">
        <ele>4</ele>
        <time>2021-10-06T20:27:37+02:00</time>
      </trkpt>
      <trkpt lat="49.2671" lon="-0.22113">
        <ele>4</ele>
        <time>2021-10-06T20:27:37+02:00</time>
      </trkpt>
      <trkpt lat="49.26736" lon="-0.22101">
        <ele>4</ele>
        <time>2021-10-06T20:27:37+02:00</time>
      </trkpt>
      <trkpt lat="49.26761" lon="-0.22091">
        <ele>4</ele>
        <time>2021-10-06T20:27:37+02:00</time>
      </trkpt>
      <trkpt lat="49.26786" lon="-0.22082">
        <ele>4</ele>
        <time>2021-10-06T20:27:37+02:00</time>
      </trkpt>
      <trkpt lat="49.26809" lon="-0.22072">
        <ele>4</ele>
        <time>2021-10-06T20:27:37+02:00</time>
      </trkpt>
      <trkpt lat="49.26833" lon="-0.22066">
        <ele>4</ele>
        <time>2021-10-06T20:27:37+02:00</time>
      </trkpt>
      <trkpt lat="49.26859" lon="-0.22058">
        <ele>4</ele>
        <time>2021-10-06T20:27:37+02:00</time>
      </trkpt>
      <trkpt lat="49.26885" lon="-0.22053">
        <ele>4</ele>
        <time>2021-10-06T20:27:37+02:00</time>
      </trkpt>
      <trkpt lat="49.26907" lon="-0.22046">
        <ele>3</ele>
        <time>2021-10-06T20:27:37+02:00</time>
      </trkpt>
      <trkpt lat="49.26931" lon="-0.22033">
        <ele>3</ele>
        <time>2021-10-06T20:27:37+02:00</time>
      </trkpt>
      <trkpt lat="49.26955" lon="-0.22027">
        <ele>3</ele>
        <time>2021-10-06T20:27:37+02:00</time>
      </trkpt>
      <trkpt lat="49.26979" lon="-0.22016">
        <ele>4</ele>
        <time>2021-10-06T20:27:37+02:00</time>
      </trkpt>
      <trkpt lat="49.27002" lon="-0.22006">
        <ele>4</ele>
        <time>2021-10-06T20:27:37+02:00</time>
      </trkpt>
      <trkpt lat="49.27024" lon="-0.21983">
        <ele>4</ele>
        <time>2021-10-06T20:27:37+02:00</time>
      </trkpt>
      <trkpt lat="49.27049" lon="-0.21967">
        <ele>4</ele>
        <time>2021-10-06T20:27:37+02:00</time>
      </trkpt>
      <trkpt lat="49.27069" lon="-0.21944">
        <ele>4</ele>
        <time>2021-10-06T20:27:37+02:00</time>
      </trkpt>
      <trkpt lat="49.27086" lon="-0.21919">
        <ele>4</ele>
        <time>2021-10-06T20:27:37+02:00</time>
      </trkpt>
      <trkpt lat="49.27104" lon="-0.21891">
        <ele>4</ele>
        <time>2021-10-06T20:27:37+02:00</time>
      </trkpt>
      <trkpt lat="49.27123" lon="-0.21865">
        <ele>5</ele>
        <time>2021-10-06T20:27:37+02:00</time>
      </trkpt>
      <trkpt lat="49.27141" lon="-0.21842">
        <ele>4</ele>
        <time>2021-10-06T20:27:37+02:00</time>
      </trkpt>
      <trkpt lat="49.27161" lon="-0.21815">
        <ele>4</ele>
        <time>2021-10-06T20:27:37+02:00</time>
      </trkpt>
      <trkpt lat="49.2718" lon="-0.21786">
        <ele>4</ele>
        <time>2021-10-06T20:27:37+02:00</time>
      </trkpt>
      <trkpt lat="49.27202" lon="-0.2176">
        <ele>6</ele>
        <time>2021-10-06T20:27:37+02:00</time>
      </trkpt>
      <trkpt lat="49.2722" lon="-0.21732">
        <ele>7</ele>
        <time>2021-10-06T20:27:37+02:00</time>
      </trkpt>
      <trkpt lat="49.27238" lon="-0.21709">
        <ele>6</ele>
        <time>2021-10-06T20:27:37+02:00</time>
      </trkpt>
      <trkpt lat="49.27254" lon="-0.21682">
        <ele>6</ele>
        <time>2021-10-06T20:27:37+02:00</time>
      </trkpt>
      <trkpt lat="49.27272" lon="-0.21655">
        <ele>6</ele>
        <time>2021-10-06T20:27:37+02:00</time>
      </trkpt>
      <trkpt lat="49.27292" lon="-0.21626">
        <ele>5</ele>
        <time>2021-10-06T20:27:37+02:00</time>
      </trkpt>
      <trkpt lat="49.27311" lon="-0.21601">
        <ele>5</ele>
        <time>2021-10-06T20:27:37+02:00</time>
      </trkpt>
      <trkpt lat="49.27328" lon="-0.21572">
        <ele>5</ele>
        <time>2021-10-06T20:27:37+02:00</time>
      </trkpt>
      <trkpt lat="49.27347" lon="-0.21545">
        <ele>4</ele>
        <time>2021-10-06T20:27:37+02:00</time>
      </trkpt>
      <trkpt lat="49.27364" lon="-0.21516">
        <ele>4</ele>
        <time>2021-10-06T20:27:37+02:00</time>
      </trkpt>
      <trkpt lat="49.27387" lon="-0.21525">
        <ele>4</ele>
        <time>2021-10-06T20:27:37+02:00</time>
      </trkpt>
      <trkpt lat="49.27409" lon="-0.21539">
        <ele>4</ele>
        <time>2021-10-06T20:27:37+02:00</time>
      </trkpt>
      <trkpt lat="49.27432" lon="-0.21555">
        <ele>4</ele>
        <time>2021-10-06T20:27:37+02:00</time>
      </trkpt>
      <trkpt lat="49.27429" lon="-0.21519">
        <ele>4</ele>
        <time>2021-10-06T20:27:37+02:00</time>
      </trkpt>
      <trkpt lat="49.27409" lon="-0.21498">
        <ele>4</ele>
        <time>2021-10-06T20:27:37+02:00</time>
      </trkpt>
      <trkpt lat="49.27428" lon="-0.21517">
        <ele>4</ele>
        <time>2021-10-06T20:27:37+02:00</time>
      </trkpt>
      <trkpt lat="49.27441" lon="-0.21549">
        <ele>4</ele>
        <time>2021-10-06T20:27:37+02:00</time>
      </trkpt>
      <trkpt lat="49.27458" lon="-0.21575">
        <ele>4</ele>
        <time>2021-10-06T20:27:37+02:00</time>
      </trkpt>
      <trkpt lat="49.27482" lon="-0.21578">
        <ele>4</ele>
        <time>2021-10-06T20:27:37+02:00</time>
      </trkpt>
      <trkpt lat="49.27503" lon="-0.21565">
        <ele>4</ele>
        <time>2021-10-06T20:27:37+02:00</time>
      </trkpt>
      <trkpt lat="49.27529" lon="-0.21554">
        <ele>4</ele>
        <time>2021-10-06T20:27:37+02:00</time>
      </trkpt>
      <trkpt lat="49.27554" lon="-0.21546">
        <ele>4</ele>
        <time>2021-10-06T20:27:37+02:00</time>
      </trkpt>
      <trkpt lat="49.27577" lon="-0.21544">
        <ele>4</ele>
        <time>2021-10-06T20:27:37+02:00</time>
      </trkpt>
      <trkpt lat="49.27601" lon="-0.21538">
        <ele>4</ele>
        <time>2021-10-06T20:27:37+02:00</time>
      </trkpt>
      <trkpt lat="49.27625" lon="-0.21534">
        <ele>4</ele>
        <time>2021-10-06T20:27:37+02:00</time>
      </trkpt>
      <trkpt lat="49.27651" lon="-0.21532">
        <ele>4</ele>
        <time>2021-10-06T20:27:37+02:00</time>
      </trkpt>
      <trkpt lat="49.27674" lon="-0.21533">
        <ele>4</ele>
        <time>2021-10-06T20:27:37+02:00</time>
      </trkpt>
      <trkpt lat="49.27698" lon="-0.21542">
        <ele>5</ele>
        <time>2021-10-06T20:27:37+02:00</time>
      </trkpt>
      <trkpt lat="49.27723" lon="-0.21552">
        <ele>5</ele>
        <time>2021-10-06T20:27:37+02:00</time>
      </trkpt>
      <trkpt lat="49.27749" lon="-0.2156">
        <ele>5</ele>
        <time>2021-10-06T20:27:37+02:00</time>
      </trkpt>
      <trkpt lat="49.2777" lon="-0.21575">
        <ele>5</ele>
        <time>2021-10-06T20:27:37+02:00</time>
      </trkpt>
      <trkpt lat="49.27795" lon="-0.21593">
        <ele>4</ele>
        <time>2021-10-06T20:27:37+02:00</time>
      </trkpt>
      <trkpt lat="49.27818" lon="-0.2161">
        <ele>4</ele>
        <time>2021-10-06T20:27:37+02:00</time>
      </trkpt>
      <trkpt lat="49.2784" lon="-0.21626">
        <ele>4</ele>
        <time>2021-10-06T20:27:37+02:00</time>
      </trkpt>
      <trkpt lat="49.27864" lon="-0.21646">
        <ele>5</ele>
        <time>2021-10-06T20:27:37+02:00</time>
      </trkpt>
      <trkpt lat="49.27886" lon="-0.21662">
        <ele>5</ele>
        <time>2021-10-06T20:27:37+02:00</time>
      </trkpt>
      <trkpt lat="49.27907" lon="-0.21678">
        <ele>5</ele>
        <time>2021-10-06T20:27:37+02:00</time>
      </trkpt>
      <trkpt lat="49.27931" lon="-0.21688">
        <ele>5</ele>
        <time>2021-10-06T20:27:37+02:00</time>
      </trkpt>
      <trkpt lat="49.27954" lon="-0.21697">
        <ele>4</ele>
        <time>2021-10-06T20:27:37+02:00</time>
      </trkpt>
      <trkpt lat="49.27977" lon="-0.21719">
        <ele>5</ele>
        <time>2021-10-06T20:27:37+02:00</time>
      </trkpt>
      <trkpt lat="49.28" lon="-0.21735">
        <ele>5</ele>
        <time>2021-10-06T20:27:37+02:00</time>
      </trkpt>
      <trkpt lat="49.28023" lon="-0.21752">
        <ele>5</ele>
        <time>2021-10-06T20:27:37+02:00</time>
      </trkpt>
      <trkpt lat="49.28044" lon="-0.2177">
        <ele>5</ele>
        <time>2021-10-06T20:27:37+02:00</time>
      </trkpt>
      <trkpt lat="49.28064" lon="-0.21789">
        <ele>5</ele>
        <time>2021-10-06T20:27:37+02:00</time>
      </trkpt>
      <trkpt lat="49.28082" lon="-0.21816">
        <ele>5</ele>
        <time>2021-10-06T20:27:37+02:00</time>
      </trkpt>
      <trkpt lat="49.28096" lon="-0.21847">
        <ele>5</ele>
        <time>2021-10-06T20:27:37+02:00</time>
      </trkpt>
      <trkpt lat="49.28111" lon="-0.21873">
        <ele>4</ele>
        <time>2021-10-06T20:27:37+02:00</time>
      </trkpt>
      <trkpt lat="49.28129" lon="-0.21903">
        <ele>5</ele>
        <time>2021-10-06T20:27:37+02:00</time>
      </trkpt>
      <trkpt lat="49.28138" lon="-0.21936">
        <ele>6</ele>
        <time>2021-10-06T20:27:37+02:00</time>
      </trkpt>
      <trkpt lat="49.28132" lon="-0.21969">
        <ele>6</ele>
        <time>2021-10-06T20:27:37+02:00</time>
      </trkpt>
      <trkpt lat="49.28156" lon="-0.21972">
        <ele>5</ele>
        <time>2021-10-06T20:27:37+02:00</time>
      </trkpt>
      <trkpt lat="49.28177" lon="-0.21985">
        <ele>6</ele>
        <time>2021-10-06T20:27:37+02:00</time>
      </trkpt>
      <trkpt lat="49.28202" lon="-0.21976">
        <ele>6</ele>
        <time>2021-10-06T20:27:37+02:00</time>
      </trkpt>
      <trkpt lat="49.28225" lon="-0.21964">
        <ele>7</ele>
        <time>2021-10-06T20:27:37+02:00</time>
      </trkpt>
      <trkpt lat="49.2825" lon="-0.21953">
        <ele>8</ele>
        <time>2021-10-06T20:27:37+02:00</time>
      </trkpt>
      <trkpt lat="49.28276" lon="-0.2196">
        <ele>8</ele>
        <time>2021-10-06T20:27:37+02:00</time>
      </trkpt>
      <trkpt lat="49.28299" lon="-0.21965">
        <ele>8</ele>
        <time>2021-10-06T20:27:37+02:00</time>
      </trkpt>
      <trkpt lat="49.2831" lon="-0.21934">
        <ele>9</ele>
        <time>2021-10-06T20:27:37+02:00</time>
      </trkpt>
      <trkpt lat="49.28333" lon="-0.21916">
        <ele>9</ele>
        <time>2021-10-06T20:27:37+02:00</time>
      </trkpt>
      <trkpt lat="49.28355" lon="-0.21896">
        <ele>9</ele>
        <time>2021-10-06T20:27:37+02:00</time>
      </trkpt>
      <trkpt lat="49.28372" lon="-0.21862">
        <ele>8</ele>
        <time>2021-10-06T20:27:37+02:00</time>
      </trkpt>
      <trkpt lat="49.2837" lon="-0.21826">
        <ele>8</ele>
        <time>2021-10-06T20:27:37+02:00</time>
      </trkpt>
      <trkpt lat="49.2838" lon="-0.21793">
        <ele>8</ele>
        <time>2021-10-06T20:27:37+02:00</time>
      </trkpt>
      <trkpt lat="49.28394" lon="-0.21765">
        <ele>8</ele>
        <time>2021-10-06T20:27:37+02:00</time>
      </trkpt>
      <trkpt lat="49.28396" lon="-0.21726">
        <ele>8</ele>
        <time>2021-10-06T20:27:37+02:00</time>
      </trkpt>
      <trkpt lat="49.28398" lon="-0.21686">
        <ele>8</ele>
        <time>2021-10-06T20:27:37+02:00</time>
      </trkpt>
      <trkpt lat="49.28391" lon="-0.21651">
        <ele>8</ele>
        <time>2021-10-06T20:27:37+02:00</time>
      </trkpt>
      <trkpt lat="49.28398" lon="-0.21614">
        <ele>9</ele>
        <time>2021-10-06T20:27:37+02:00</time>
      </trkpt>
      <trkpt lat="49.28409" lon="-0.21576">
        <ele>9</ele>
        <time>2021-10-06T20:27:37+02:00</time>
      </trkpt>
      <trkpt lat="49.28411" lon="-0.21541">
        <ele>8</ele>
        <time>2021-10-06T20:27:37+02:00</time>
      </trkpt>
      <trkpt lat="49.28417" lon="-0.21505">
        <ele>8</ele>
        <time>2021-10-06T20:27:37+02:00</time>
      </trkpt>
      <trkpt lat="49.28424" lon="-0.2147">
        <ele>8</ele>
        <time>2021-10-06T20:27:37+02:00</time>
      </trkpt>
      <trkpt lat="49.28431" lon="-0.21434">
        <ele>9</ele>
        <time>2021-10-06T20:27:37+02:00</time>
      </trkpt>
      <trkpt lat="49.28439" lon="-0.21402">
        <ele>9</ele>
        <time>2021-10-06T20:27:37+02:00</time>
      </trkpt>
      <trkpt lat="49.28442" lon="-0.21361">
        <ele>8</ele>
        <time>2021-10-06T20:27:37+02:00</time>
      </trkpt>
      <trkpt lat="49.28445" lon="-0.21323">
        <ele>8</ele>
        <time>2021-10-06T20:27:37+02:00</time>
      </trkpt>
      <trkpt lat="49.28458" lon="-0.21292">
        <ele>8</ele>
        <time>2021-10-06T20:27:37+02:00</time>
      </trkpt>
      <trkpt lat="49.28453" lon="-0.21203">
        <ele>8</ele>
        <time>2021-10-06T20:27:37+02:00</time>
      </trkpt>
      <trkpt lat="49.2847" lon="-0.21178">
        <ele>7</ele>
        <time>2021-10-06T20:27:37+02:00</time>
      </trkpt>
      <trkpt lat="49.28472" lon="-0.21143">
        <ele>7</ele>
        <time>2021-10-06T20:27:37+02:00</time>
      </trkpt>
      <trkpt lat="49.28478" lon="-0.21106">
        <ele>8</ele>
        <time>2021-10-06T20:27:37+02:00</time>
      </trkpt>
      <trkpt lat="49.2848" lon="-0.21071">
        <ele>8</ele>
        <time>2021-10-06T20:27:37+02:00</time>
      </trkpt>
      <trkpt lat="49.28484" lon="-0.2103">
        <ele>8</ele>
        <time>2021-10-06T20:27:37+02:00</time>
      </trkpt>
      <trkpt lat="49.28488" lon="-0.2099">
        <ele>8</ele>
        <time>2021-10-06T20:27:37+02:00</time>
      </trkpt>
      <trkpt lat="49.28492" lon="-0.20953">
        <ele>8</ele>
        <time>2021-10-06T20:27:37+02:00</time>
      </trkpt>
      <trkpt lat="49.28494" lon="-0.20914">
        <ele>8</ele>
        <time>2021-10-06T20:27:37+02:00</time>
      </trkpt>
      <trkpt lat="49.28498" lon="-0.20878">
        <ele>8</ele>
        <time>2021-10-06T20:27:37+02:00</time>
      </trkpt>
      <trkpt lat="49.28503" lon="-0.20839">
        <ele>8</ele>
        <time>2021-10-06T20:27:37+02:00</time>
      </trkpt>
      <trkpt lat="49.28505" lon="-0.20798">
        <ele>8</ele>
        <time>2021-10-06T20:27:37+02:00</time>
      </trkpt>
      <trkpt lat="49.28511" lon="-0.20763">
        <ele>8</ele>
        <time>2021-10-06T20:27:37+02:00</time>
      </trkpt>
      <trkpt lat="49.28514" lon="-0.20725">
        <ele>8</ele>
        <time>2021-10-06T20:27:37+02:00</time>
      </trkpt>
      <trkpt lat="49.2852" lon="-0.20691">
        <ele>8</ele>
        <time>2021-10-06T20:27:37+02:00</time>
      </trkpt>
      <trkpt lat="49.28521" lon="-0.20653">
        <ele>7</ele>
        <time>2021-10-06T20:27:37+02:00</time>
      </trkpt>
      <trkpt lat="49.28525" lon="-0.20619">
        <ele>7</ele>
        <time>2021-10-06T20:27:37+02:00</time>
      </trkpt>
      <trkpt lat="49.28529" lon="-0.20581">
        <ele>7</ele>
        <time>2021-10-06T20:27:37+02:00</time>
      </trkpt>
      <trkpt lat="49.28536" lon="-0.20544">
        <ele>8</ele>
        <time>2021-10-06T20:27:37+02:00</time>
      </trkpt>
      <trkpt lat="49.28539" lon="-0.20506">
        <ele>8</ele>
        <time>2021-10-06T20:27:37+02:00</time>
      </trkpt>
      <trkpt lat="49.28545" lon="-0.20469">
        <ele>8</ele>
        <time>2021-10-06T20:27:37+02:00</time>
      </trkpt>
      <trkpt lat="49.28548" lon="-0.20433">
        <ele>9</ele>
        <time>2021-10-06T20:27:37+02:00</time>
      </trkpt>
      <trkpt lat="49.28552" lon="-0.20399">
        <ele>8</ele>
        <time>2021-10-06T20:27:37+02:00</time>
      </trkpt>
      <trkpt lat="49.2855" lon="-0.2036">
        <ele>8</ele>
        <time>2021-10-06T20:27:37+02:00</time>
      </trkpt>
      <trkpt lat="49.28576" lon="-0.20361">
        <ele>8</ele>
        <time>2021-10-06T20:27:37+02:00</time>
      </trkpt>
      <trkpt lat="49.28595" lon="-0.20341">
        <ele>8</ele>
        <time>2021-10-06T20:27:37+02:00</time>
      </trkpt>
      <trkpt lat="49.28597" lon="-0.20303">
        <ele>8</ele>
        <time>2021-10-06T20:27:37+02:00</time>
      </trkpt>
      <trkpt lat="49.286" lon="-0.20269">
        <ele>8</ele>
        <time>2021-10-06T20:27:37+02:00</time>
      </trkpt>
      <trkpt lat="49.28577" lon="-0.20259">
        <ele>8</ele>
        <time>2021-10-06T20:27:37+02:00</time>
      </trkpt>
      <trkpt lat="49.28558" lon="-0.20238">
        <ele>8</ele>
        <time>2021-10-06T20:27:37+02:00</time>
      </trkpt>
      <trkpt lat="49.28559" lon="-0.20203">
        <ele>8</ele>
        <time>2021-10-06T20:27:37+02:00</time>
      </trkpt>
      <trkpt lat="49.28563" lon="-0.20167">
        <ele>8</ele>
        <time>2021-10-06T20:27:37+02:00</time>
      </trkpt>
      <trkpt lat="49.2856" lon="-0.20128">
        <ele>8</ele>
        <time>2021-10-06T20:27:37+02:00</time>
      </trkpt>
      <trkpt lat="49.28561" lon="-0.20089">
        <ele>8</ele>
        <time>2021-10-06T20:27:37+02:00</time>
      </trkpt>
      <trkpt lat="49.28539" lon="-0.20078">
        <ele>8</ele>
        <time>2021-10-06T20:27:37+02:00</time>
      </trkpt>
      <trkpt lat="49.28514" lon="-0.2007">
        <ele>8</ele>
        <time>2021-10-06T20:27:37+02:00</time>
      </trkpt>
      <trkpt lat="49.28489" lon="-0.20064">
        <ele>7</ele>
        <time>2021-10-06T20:27:37+02:00</time>
      </trkpt>
      <trkpt lat="49.28481" lon="-0.20026">
        <ele>6</ele>
        <time>2021-10-06T20:27:37+02:00</time>
      </trkpt>
      <trkpt lat="49.28484" lon="-0.19992">
        <ele>6</ele>
        <time>2021-10-06T20:27:37+02:00</time>
      </trkpt>
      <trkpt lat="49.28488" lon="-0.19954">
        <ele>6</ele>
        <time>2021-10-06T20:27:37+02:00</time>
      </trkpt>
      <trkpt lat="49.28491" lon="-0.19914">
        <ele>6</ele>
        <time>2021-10-06T20:27:37+02:00</time>
      </trkpt>
      <trkpt lat="49.28495" lon="-0.19872">
        <ele>6</ele>
        <time>2021-10-06T20:27:37+02:00</time>
      </trkpt>
      <trkpt lat="49.28498" lon="-0.19837">
        <ele>6</ele>
        <time>2021-10-06T20:27:37+02:00</time>
      </trkpt>
      <trkpt lat="49.28478" lon="-0.19817">
        <ele>6</ele>
        <time>2021-10-06T20:27:37+02:00</time>
      </trkpt>
      <trkpt lat="49.28457" lon="-0.19795">
        <ele>5</ele>
        <time>2021-10-06T20:27:37+02:00</time>
      </trkpt>
      <trkpt lat="49.28434" lon="-0.19773">
        <ele>6</ele>
        <time>2021-10-06T20:27:37+02:00</time>
      </trkpt>
      <trkpt lat="49.28412" lon="-0.19753">
        <ele>6</ele>
        <time>2021-10-06T20:27:37+02:00</time>
      </trkpt>
      <trkpt lat="49.28387" lon="-0.19734">
        <ele>6</ele>
        <time>2021-10-06T20:27:37+02:00</time>
      </trkpt>
      <trkpt lat="49.28367" lon="-0.19714">
        <ele>7</ele>
        <time>2021-10-06T20:27:37+02:00</time>
      </trkpt>
      <trkpt lat="49.28347" lon="-0.19695">
        <ele>7</ele>
        <time>2021-10-06T20:27:37+02:00</time>
      </trkpt>
      <trkpt lat="49.28325" lon="-0.19673">
        <ele>8</ele>
        <time>2021-10-06T20:27:37+02:00</time>
      </trkpt>
      <trkpt lat="49.28306" lon="-0.19654">
        <ele>7</ele>
        <time>2021-10-06T20:27:37+02:00</time>
      </trkpt>
      <trkpt lat="49.28284" lon="-0.19633">
        <ele>7</ele>
        <time>2021-10-06T20:27:37+02:00</time>
      </trkpt>
      <trkpt lat="49.28263" lon="-0.19607">
        <ele>7</ele>
        <time>2021-10-06T20:27:37+02:00</time>
      </trkpt>
      <trkpt lat="49.28238" lon="-0.19588">
        <ele>7</ele>
        <time>2021-10-06T20:27:37+02:00</time>
      </trkpt>
      <trkpt lat="49.28244" lon="-0.19553">
        <ele>6</ele>
        <time>2021-10-06T20:27:37+02:00</time>
      </trkpt>
      <trkpt lat="49.2826" lon="-0.19523">
        <ele>7</ele>
        <time>2021-10-06T20:27:37+02:00</time>
      </trkpt>
      <trkpt lat="49.28273" lon="-0.1949">
        <ele>7</ele>
        <time>2021-10-06T20:27:37+02:00</time>
      </trkpt>
      <trkpt lat="49.28287" lon="-0.19457">
        <ele>7</ele>
        <time>2021-10-06T20:27:37+02:00</time>
      </trkpt>
      <trkpt lat="49.28298" lon="-0.1942">
        <ele>7</ele>
        <time>2021-10-06T20:27:37+02:00</time>
      </trkpt>
      <trkpt lat="49.28311" lon="-0.1939">
        <ele>7</ele>
        <time>2021-10-06T20:27:37+02:00</time>
      </trkpt>
      <trkpt lat="49.28328" lon="-0.19361">
        <ele>6</ele>
        <time>2021-10-06T20:27:37+02:00</time>
      </trkpt>
      <trkpt lat="49.28315" lon="-0.19329">
        <ele>7</ele>
        <time>2021-10-06T20:27:37+02:00</time>
      </trkpt>
      <trkpt lat="49.28289" lon="-0.19312">
        <ele>6</ele>
        <time>2021-10-06T20:27:37+02:00</time>
      </trkpt>
      <trkpt lat="49.28269" lon="-0.19294">
        <ele>6</ele>
        <time>2021-10-06T20:27:37+02:00</time>
      </trkpt>
      <trkpt lat="49.28252" lon="-0.19269">
        <ele>6</ele>
        <time>2021-10-06T20:27:37+02:00</time>
      </trkpt>
      <trkpt lat="49.28262" lon="-0.1923">
        <ele>6</ele>
        <time>2021-10-06T20:27:37+02:00</time>
      </trkpt>
      <trkpt lat="49.28274" lon="-0.19193">
        <ele>5</ele>
        <time>2021-10-06T20:27:37+02:00</time>
      </trkpt>
      <trkpt lat="49.28287" lon="-0.19158">
        <ele>5</ele>
        <time>2021-10-06T20:27:37+02:00</time>
      </trkpt>
      <trkpt lat="49.28298" lon="-0.1912">
        <ele>5</ele>
        <time>2021-10-06T20:27:37+02:00</time>
      </trkpt>
      <trkpt lat="49.28309" lon="-0.19081">
        <ele>6</ele>
        <time>2021-10-06T20:27:37+02:00</time>
      </trkpt>
      <trkpt lat="49.28318" lon="-0.19047">
        <ele>6</ele>
        <time>2021-10-06T20:27:37+02:00</time>
      </trkpt>
      <trkpt lat="49.28323" lon="-0.19013">
        <ele>6</ele>
        <time>2021-10-06T20:27:37+02:00</time>
      </trkpt>
      <trkpt lat="49.28332" lon="-0.18971">
        <ele>5</ele>
        <time>2021-10-06T20:27:37+02:00</time>
      </trkpt>
      <trkpt lat="49.28336" lon="-0.18937">
        <ele>5</ele>
        <time>2021-10-06T20:27:37+02:00</time>
      </trkpt>
      <trkpt lat="49.28342" lon="-0.18902">
        <ele>5</ele>
        <time>2021-10-06T20:27:37+02:00</time>
      </trkpt>
      <trkpt lat="49.28348" lon="-0.18862">
        <ele>5</ele>
        <time>2021-10-06T20:27:37+02:00</time>
      </trkpt>
      <trkpt lat="49.28354" lon="-0.18822">
        <ele>6</ele>
        <time>2021-10-06T20:27:37+02:00</time>
      </trkpt>
      <trkpt lat="49.28372" lon="-0.18789">
        <ele>6</ele>
        <time>2021-10-06T20:27:37+02:00</time>
      </trkpt>
      <trkpt lat="49.28382" lon="-0.18757">
        <ele>6</ele>
        <time>2021-10-06T20:27:37+02:00</time>
      </trkpt>
      <trkpt lat="49.28393" lon="-0.18721">
        <ele>5</ele>
        <time>2021-10-06T20:27:37+02:00</time>
      </trkpt>
      <trkpt lat="49.28407" lon="-0.18683">
        <ele>5</ele>
        <time>2021-10-06T20:27:37+02:00</time>
      </trkpt>
      <trkpt lat="49.28418" lon="-0.18645">
        <ele>5</ele>
        <time>2021-10-06T20:27:37+02:00</time>
      </trkpt>
      <trkpt lat="49.28432" lon="-0.18607">
        <ele>5</ele>
        <time>2021-10-06T20:27:37+02:00</time>
      </trkpt>
      <trkpt lat="49.28444" lon="-0.18576">
        <ele>5</ele>
        <time>2021-10-06T20:27:37+02:00</time>
      </trkpt>
      <trkpt lat="49.28454" lon="-0.18543">
        <ele>5</ele>
        <time>2021-10-06T20:27:37+02:00</time>
      </trkpt>
      <trkpt lat="49.2846" lon="-0.18508">
        <ele>6</ele>
        <time>2021-10-06T20:27:37+02:00</time>
      </trkpt>
      <trkpt lat="49.28467" lon="-0.18474">
        <ele>6</ele>
        <time>2021-10-06T20:27:37+02:00</time>
      </trkpt>
      <trkpt lat="49.28472" lon="-0.1844">
        <ele>6</ele>
        <time>2021-10-06T20:27:37+02:00</time>
      </trkpt>
      <trkpt lat="49.28476" lon="-0.18406">
        <ele>6</ele>
        <time>2021-10-06T20:27:37+02:00</time>
      </trkpt>
      <trkpt lat="49.28477" lon="-0.18364">
        <ele>5</ele>
        <time>2021-10-06T20:27:37+02:00</time>
      </trkpt>
      <trkpt lat="49.28476" lon="-0.18329">
        <ele>6</ele>
        <time>2021-10-06T20:27:37+02:00</time>
      </trkpt>
      <trkpt lat="49.28473" lon="-0.18288">
        <ele>6</ele>
        <time>2021-10-06T20:27:37+02:00</time>
      </trkpt>
      <trkpt lat="49.28472" lon="-0.18248">
        <ele>5</ele>
        <time>2021-10-06T20:27:37+02:00</time>
      </trkpt>
      <trkpt lat="49.28469" lon="-0.18208">
        <ele>5</ele>
        <time>2021-10-06T20:27:37+02:00</time>
      </trkpt>
      <trkpt lat="49.28467" lon="-0.1817">
        <ele>5</ele>
        <time>2021-10-06T20:27:37+02:00</time>
      </trkpt>
      <trkpt lat="49.28464" lon="-0.18136">
        <ele>5</ele>
        <time>2021-10-06T20:27:37+02:00</time>
      </trkpt>
      <trkpt lat="49.28459" lon="-0.18095">
        <ele>4</ele>
        <time>2021-10-06T20:27:37+02:00</time>
      </trkpt>
      <trkpt lat="49.28458" lon="-0.18054">
        <ele>5</ele>
        <time>2021-10-06T20:27:37+02:00</time>
      </trkpt>
      <trkpt lat="49.28454" lon="-0.18012">
        <ele>5</ele>
        <time>2021-10-06T20:27:37+02:00</time>
      </trkpt>
      <trkpt lat="49.28452" lon="-0.17971">
        <ele>5</ele>
        <time>2021-10-06T20:27:37+02:00</time>
      </trkpt>
      <trkpt lat="49.28454" lon="-0.17933">
        <ele>5</ele>
        <time>2021-10-06T20:27:37+02:00</time>
      </trkpt>
      <trkpt lat="49.2846" lon="-0.17893">
        <ele>5</ele>
        <time>2021-10-06T20:27:37+02:00</time>
      </trkpt>
      <trkpt lat="49.28468" lon="-0.17859">
        <ele>5</ele>
        <time>2021-10-06T20:27:37+02:00</time>
      </trkpt>
      <trkpt lat="49.28473" lon="-0.17825">
        <ele>5</ele>
        <time>2021-10-06T20:27:37+02:00</time>
      </trkpt>
      <trkpt lat="49.28478" lon="-0.17779">
        <ele>5</ele>
        <time>2021-10-06T20:27:37+02:00</time>
      </trkpt>
      <trkpt lat="49.28485" lon="-0.17739">
        <ele>5</ele>
        <time>2021-10-06T20:27:37+02:00</time>
      </trkpt>
      <trkpt lat="49.2849" lon="-0.17698">
        <ele>5</ele>
        <time>2021-10-06T20:27:37+02:00</time>
      </trkpt>
      <trkpt lat="49.28494" lon="-0.17658">
        <ele>6</ele>
        <time>2021-10-06T20:27:37+02:00</time>
      </trkpt>
      <trkpt lat="49.28496" lon="-0.17619">
        <ele>6</ele>
        <time>2021-10-06T20:27:37+02:00</time>
      </trkpt>
      <trkpt lat="49.28494" lon="-0.17576">
        <ele>6</ele>
        <time>2021-10-06T20:27:37+02:00</time>
      </trkpt>
      <trkpt lat="49.28488" lon="-0.17542">
        <ele>5</ele>
        <time>2021-10-06T20:27:37+02:00</time>
      </trkpt>
      <trkpt lat="49.28482" lon="-0.17507">
        <ele>5</ele>
        <time>2021-10-06T20:27:37+02:00</time>
      </trkpt>
      <trkpt lat="49.28477" lon="-0.17472">
        <ele>5</ele>
        <time>2021-10-06T20:27:37+02:00</time>
      </trkpt>
      <trkpt lat="49.28473" lon="-0.17438">
        <ele>5</ele>
        <time>2021-10-06T20:27:37+02:00</time>
      </trkpt>
      <trkpt lat="49.28467" lon="-0.17396">
        <ele>5</ele>
        <time>2021-10-06T20:27:37+02:00</time>
      </trkpt>
      <trkpt lat="49.28464" lon="-0.17361">
        <ele>5</ele>
        <time>2021-10-06T20:27:37+02:00</time>
      </trkpt>
      <trkpt lat="49.28459" lon="-0.17319">
        <ele>5</ele>
        <time>2021-10-06T20:27:37+02:00</time>
      </trkpt>
      <trkpt lat="49.28456" lon="-0.17285">
        <ele>5</ele>
        <time>2021-10-06T20:27:37+02:00</time>
      </trkpt>
      <trkpt lat="49.28452" lon="-0.17242">
        <ele>5</ele>
        <time>2021-10-06T20:27:37+02:00</time>
      </trkpt>
      <trkpt lat="49.28447" lon="-0.17207">
        <ele>5</ele>
        <time>2021-10-06T20:27:37+02:00</time>
      </trkpt>
      <trkpt lat="49.28442" lon="-0.17163">
        <ele>5</ele>
        <time>2021-10-06T20:27:37+02:00</time>
      </trkpt>
      <trkpt lat="49.28439" lon="-0.17126">
        <ele>5</ele>
        <time>2021-10-06T20:27:37+02:00</time>
      </trkpt>
      <trkpt lat="49.28437" lon="-0.17086">
        <ele>5</ele>
        <time>2021-10-06T20:27:37+02:00</time>
      </trkpt>
      <trkpt lat="49.28433" lon="-0.17051">
        <ele>5</ele>
        <time>2021-10-06T20:27:37+02:00</time>
      </trkpt>
      <trkpt lat="49.28428" lon="-0.1701">
        <ele>5</ele>
        <time>2021-10-06T20:27:37+02:00</time>
      </trkpt>
      <trkpt lat="49.28431" lon="-0.16973">
        <ele>5</ele>
        <time>2021-10-06T20:27:37+02:00</time>
      </trkpt>
      <trkpt lat="49.28435" lon="-0.16938">
        <ele>5</ele>
        <time>2021-10-06T20:27:37+02:00</time>
      </trkpt>
      <trkpt lat="49.28439" lon="-0.16899">
        <ele>5</ele>
        <time>2021-10-06T20:27:37+02:00</time>
      </trkpt>
      <trkpt lat="49.28443" lon="-0.16864">
        <ele>5</ele>
        <time>2021-10-06T20:27:37+02:00</time>
      </trkpt>
      <trkpt lat="49.28445" lon="-0.16827">
        <ele>5</ele>
        <time>2021-10-06T20:27:37+02:00</time>
      </trkpt>
      <trkpt lat="49.28444" lon="-0.1679">
        <ele>5</ele>
        <time>2021-10-06T20:27:37+02:00</time>
      </trkpt>
      <trkpt lat="49.28447" lon="-0.1675">
        <ele>5</ele>
        <time>2021-10-06T20:27:37+02:00</time>
      </trkpt>
      <trkpt lat="49.28446" lon="-0.16711">
        <ele>5</ele>
        <time>2021-10-06T20:27:37+02:00</time>
      </trkpt>
      <trkpt lat="49.28444" lon="-0.16676">
        <ele>5</ele>
        <time>2021-10-06T20:27:37+02:00</time>
      </trkpt>
      <trkpt lat="49.28443" lon="-0.16639">
        <ele>5</ele>
        <time>2021-10-06T20:27:37+02:00</time>
      </trkpt>
      <trkpt lat="49.2845" lon="-0.16675">
        <ele>5</ele>
        <time>2021-10-06T20:27:37+02:00</time>
      </trkpt>
      <trkpt lat="49.28451" lon="-0.1671">
        <ele>5</ele>
        <time>2021-10-06T20:27:37+02:00</time>
      </trkpt>
      <trkpt lat="49.2844" lon="-0.16675">
        <ele>5</ele>
        <time>2021-10-06T20:27:37+02:00</time>
      </trkpt>
      <trkpt lat="49.28413" lon="-0.16672">
        <ele>5</ele>
        <time>2021-10-06T20:27:37+02:00</time>
      </trkpt>
      <trkpt lat="49.28389" lon="-0.16675">
        <ele>5</ele>
        <time>2021-10-06T20:27:37+02:00</time>
      </trkpt>
      <trkpt lat="49.28364" lon="-0.16673">
        <ele>6</ele>
        <time>2021-10-06T20:27:37+02:00</time>
      </trkpt>
      <trkpt lat="49.28345" lon="-0.16652">
        <ele>6</ele>
        <time>2021-10-06T20:27:37+02:00</time>
      </trkpt>
      <trkpt lat="49.28348" lon="-0.16612">
        <ele>6</ele>
        <time>2021-10-06T20:27:37+02:00</time>
      </trkpt>
      <trkpt lat="49.2835" lon="-0.16578">
        <ele>6</ele>
        <time>2021-10-06T20:27:37+02:00</time>
      </trkpt>
      <trkpt lat="49.2835" lon="-0.16538">
        <ele>5</ele>
        <time>2021-10-06T20:27:37+02:00</time>
      </trkpt>
      <trkpt lat="49.2835" lon="-0.16493">
        <ele>5</ele>
        <time>2021-10-06T20:27:37+02:00</time>
      </trkpt>
      <trkpt lat="49.2835" lon="-0.16457">
        <ele>5</ele>
        <time>2021-10-06T20:27:37+02:00</time>
      </trkpt>
      <trkpt lat="49.28352" lon="-0.16417">
        <ele>5</ele>
        <time>2021-10-06T20:27:37+02:00</time>
      </trkpt>
      <trkpt lat="49.28354" lon="-0.16381">
        <ele>5</ele>
        <time>2021-10-06T20:27:37+02:00</time>
      </trkpt>
      <trkpt lat="49.28357" lon="-0.16344">
        <ele>5</ele>
        <time>2021-10-06T20:27:37+02:00</time>
      </trkpt>
      <trkpt lat="49.28359" lon="-0.16309">
        <ele>5</ele>
        <time>2021-10-06T20:27:37+02:00</time>
      </trkpt>
      <trkpt lat="49.28361" lon="-0.16273">
        <ele>5</ele>
        <time>2021-10-06T20:27:37+02:00</time>
      </trkpt>
      <trkpt lat="49.28363" lon="-0.16234">
        <ele>5</ele>
        <time>2021-10-06T20:27:37+02:00</time>
      </trkpt>
      <trkpt lat="49.28366" lon="-0.16191">
        <ele>5</ele>
        <time>2021-10-06T20:27:37+02:00</time>
      </trkpt>
      <trkpt lat="49.28383" lon="-0.16162">
        <ele>5</ele>
        <time>2021-10-06T20:27:37+02:00</time>
      </trkpt>
      <trkpt lat="49.28403" lon="-0.16134">
        <ele>5</ele>
        <time>2021-10-06T20:27:37+02:00</time>
      </trkpt>
      <trkpt lat="49.28422" lon="-0.1611">
        <ele>5</ele>
        <time>2021-10-06T20:27:37+02:00</time>
      </trkpt>
      <trkpt lat="49.28438" lon="-0.16086">
        <ele>5</ele>
        <time>2021-10-06T20:27:37+02:00</time>
      </trkpt>
      <trkpt lat="49.28457" lon="-0.16067">
        <ele>5</ele>
        <time>2021-10-06T20:27:37+02:00</time>
      </trkpt>
      <trkpt lat="49.28459" lon="-0.16029">
        <ele>5</ele>
        <time>2021-10-06T20:27:37+02:00</time>
      </trkpt>
      <trkpt lat="49.2846" lon="-0.15993">
        <ele>5</ele>
        <time>2021-10-06T20:27:37+02:00</time>
      </trkpt>
      <trkpt lat="49.28458" lon="-0.15955">
        <ele>5</ele>
        <time>2021-10-06T20:27:37+02:00</time>
      </trkpt>
      <trkpt lat="49.28457" lon="-0.15915">
        <ele>5</ele>
        <time>2021-10-06T20:27:37+02:00</time>
      </trkpt>
      <trkpt lat="49.28455" lon="-0.15872">
        <ele>5</ele>
        <time>2021-10-06T20:27:37+02:00</time>
      </trkpt>
      <trkpt lat="49.28451" lon="-0.15838">
        <ele>5</ele>
        <time>2021-10-06T20:27:37+02:00</time>
      </trkpt>
      <trkpt lat="49.28448" lon="-0.158">
        <ele>5</ele>
        <time>2021-10-06T20:27:37+02:00</time>
      </trkpt>
      <trkpt lat="49.28445" lon="-0.15764">
        <ele>5</ele>
        <time>2021-10-06T20:27:37+02:00</time>
      </trkpt>
      <trkpt lat="49.28443" lon="-0.15723">
        <ele>5</ele>
        <time>2021-10-06T20:27:37+02:00</time>
      </trkpt>
      <trkpt lat="49.28443" lon="-0.15687">
        <ele>5</ele>
        <time>2021-10-06T20:27:37+02:00</time>
      </trkpt>
      <trkpt lat="49.28441" lon="-0.15646">
        <ele>5</ele>
        <time>2021-10-06T20:27:37+02:00</time>
      </trkpt>
      <trkpt lat="49.28443" lon="-0.15603">
        <ele>5</ele>
        <time>2021-10-06T20:27:37+02:00</time>
      </trkpt>
      <trkpt lat="49.28437" lon="-0.15565">
        <ele>5</ele>
        <time>2021-10-06T20:27:37+02:00</time>
      </trkpt>
      <trkpt lat="49.28435" lon="-0.15528">
        <ele>5</ele>
        <time>2021-10-06T20:27:37+02:00</time>
      </trkpt>
      <trkpt lat="49.28435" lon="-0.15491">
        <ele>5</ele>
        <time>2021-10-06T20:27:37+02:00</time>
      </trkpt>
      <trkpt lat="49.28458" lon="-0.15489">
        <ele>5</ele>
        <time>2021-10-06T20:27:37+02:00</time>
      </trkpt>
      <trkpt lat="49.28484" lon="-0.15498">
        <ele>5</ele>
        <time>2021-10-06T20:27:37+02:00</time>
      </trkpt>
      <trkpt lat="49.28508" lon="-0.15505">
        <ele>5</ele>
        <time>2021-10-06T20:27:37+02:00</time>
      </trkpt>
      <trkpt lat="49.28531" lon="-0.15508">
        <ele>6</ele>
        <time>2021-10-06T20:27:37+02:00</time>
      </trkpt>
      <trkpt lat="49.28532" lon="-0.1547">
        <ele>6</ele>
        <time>2021-10-06T20:27:37+02:00</time>
      </trkpt>
      <trkpt lat="49.28532" lon="-0.1543">
        <ele>6</ele>
        <time>2021-10-06T20:27:37+02:00</time>
      </trkpt>
      <trkpt lat="49.28548" lon="-0.15403">
        <ele>6</ele>
        <time>2021-10-06T20:27:37+02:00</time>
      </trkpt>
      <trkpt lat="49.28575" lon="-0.15405">
        <ele>6</ele>
        <time>2021-10-06T20:27:37+02:00</time>
      </trkpt>
      <trkpt lat="49.28599" lon="-0.15402">
        <ele>6</ele>
        <time>2021-10-06T20:27:37+02:00</time>
      </trkpt>
      <trkpt lat="49.28619" lon="-0.15379">
        <ele>7</ele>
        <time>2021-10-06T20:27:37+02:00</time>
      </trkpt>
      <trkpt lat="49.28634" lon="-0.15348">
        <ele>7</ele>
        <time>2021-10-06T20:27:37+02:00</time>
      </trkpt>
      <trkpt lat="49.28646" lon="-0.15318">
        <ele>8</ele>
        <time>2021-10-06T20:27:37+02:00</time>
      </trkpt>
      <trkpt lat="49.28659" lon="-0.15285">
        <ele>9</ele>
        <time>2021-10-06T20:27:37+02:00</time>
      </trkpt>
      <trkpt lat="49.2867" lon="-0.15255">
        <ele>9</ele>
        <time>2021-10-06T20:27:37+02:00</time>
      </trkpt>
      <trkpt lat="49.28686" lon="-0.15222">
        <ele>10</ele>
        <time>2021-10-06T20:27:37+02:00</time>
      </trkpt>
      <trkpt lat="49.28694" lon="-0.15189">
        <ele>10</ele>
        <time>2021-10-06T20:27:37+02:00</time>
      </trkpt>
      <trkpt lat="49.28694" lon="-0.1515">
        <ele>11</ele>
        <time>2021-10-06T20:27:37+02:00</time>
      </trkpt>
      <trkpt lat="49.28688" lon="-0.15115">
        <ele>11</ele>
        <time>2021-10-06T20:27:37+02:00</time>
      </trkpt>
      <trkpt lat="49.28691" lon="-0.15081">
        <ele>12</ele>
        <time>2021-10-06T20:27:37+02:00</time>
      </trkpt>
      <trkpt lat="49.28697" lon="-0.15046">
        <ele>12</ele>
        <time>2021-10-06T20:27:37+02:00</time>
      </trkpt>
      <trkpt lat="49.287" lon="-0.15003">
        <ele>12</ele>
        <time>2021-10-06T20:27:37+02:00</time>
      </trkpt>
      <trkpt lat="49.28706" lon="-0.14969">
        <ele>11</ele>
        <time>2021-10-06T20:27:37+02:00</time>
      </trkpt>
      <trkpt lat="49.28712" lon="-0.14934">
        <ele>10</ele>
        <time>2021-10-06T20:27:37+02:00</time>
      </trkpt>
      <trkpt lat="49.28719" lon="-0.14895">
        <ele>10</ele>
        <time>2021-10-06T20:27:37+02:00</time>
      </trkpt>
      <trkpt lat="49.28727" lon="-0.14853">
        <ele>9</ele>
        <time>2021-10-06T20:27:37+02:00</time>
      </trkpt>
      <trkpt lat="49.28735" lon="-0.14813">
        <ele>9</ele>
        <time>2021-10-06T20:27:37+02:00</time>
      </trkpt>
      <trkpt lat="49.28738" lon="-0.14777">
        <ele>10</ele>
        <time>2021-10-06T20:27:37+02:00</time>
      </trkpt>
      <trkpt lat="49.28731" lon="-0.14734">
        <ele>9</ele>
        <time>2021-10-06T20:27:37+02:00</time>
      </trkpt>
      <trkpt lat="49.28732" lon="-0.147">
        <ele>8</ele>
        <time>2021-10-06T20:27:37+02:00</time>
      </trkpt>
      <trkpt lat="49.28739" lon="-0.14657">
        <ele>6</ele>
        <time>2021-10-06T20:27:37+02:00</time>
      </trkpt>
      <trkpt lat="49.28743" lon="-0.14617">
        <ele>5</ele>
        <time>2021-10-06T20:27:37+02:00</time>
      </trkpt>
      <trkpt lat="49.28746" lon="-0.1458">
        <ele>5</ele>
        <time>2021-10-06T20:27:37+02:00</time>
      </trkpt>
      <trkpt lat="49.28752" lon="-0.14537">
        <ele>5</ele>
        <time>2021-10-06T20:27:37+02:00</time>
      </trkpt>
      <trkpt lat="49.28757" lon="-0.14496">
        <ele>5</ele>
        <time>2021-10-06T20:27:37+02:00</time>
      </trkpt>
      <trkpt lat="49.28762" lon="-0.14462">
        <ele>6</ele>
        <time>2021-10-06T20:27:37+02:00</time>
      </trkpt>
      <trkpt lat="49.28766" lon="-0.14426">
        <ele>7</ele>
        <time>2021-10-06T20:27:37+02:00</time>
      </trkpt>
      <trkpt lat="49.28772" lon="-0.1439">
        <ele>6</ele>
        <time>2021-10-06T20:27:37+02:00</time>
      </trkpt>
      <trkpt lat="49.28777" lon="-0.14354">
        <ele>6</ele>
        <time>2021-10-06T20:27:37+02:00</time>
      </trkpt>
      <trkpt lat="49.28781" lon="-0.14311">
        <ele>6</ele>
        <time>2021-10-06T20:27:37+02:00</time>
      </trkpt>
      <trkpt lat="49.28786" lon="-0.14273">
        <ele>6</ele>
        <time>2021-10-06T20:27:37+02:00</time>
      </trkpt>
      <trkpt lat="49.28792" lon="-0.14239">
        <ele>6</ele>
        <time>2021-10-06T20:27:37+02:00</time>
      </trkpt>
      <trkpt lat="49.28796" lon="-0.14205">
        <ele>6</ele>
        <time>2021-10-06T20:27:37+02:00</time>
      </trkpt>
      <trkpt lat="49.288" lon="-0.1417">
        <ele>6</ele>
        <time>2021-10-06T20:27:37+02:00</time>
      </trkpt>
      <trkpt lat="49.28805" lon="-0.14125">
        <ele>6</ele>
        <time>2021-10-06T20:27:37+02:00</time>
      </trkpt>
      <trkpt lat="49.2881" lon="-0.14091">
        <ele>6</ele>
        <time>2021-10-06T20:27:37+02:00</time>
      </trkpt>
      <trkpt lat="49.28815" lon="-0.14055">
        <ele>6</ele>
        <time>2021-10-06T20:27:37+02:00</time>
      </trkpt>
      <trkpt lat="49.28819" lon="-0.14019">
        <ele>6</ele>
        <time>2021-10-06T20:27:37+02:00</time>
      </trkpt>
      <trkpt lat="49.28823" lon="-0.1398">
        <ele>6</ele>
        <time>2021-10-06T20:27:37+02:00</time>
      </trkpt>
      <trkpt lat="49.28828" lon="-0.13941">
        <ele>6</ele>
        <time>2021-10-06T20:27:37+02:00</time>
      </trkpt>
      <trkpt lat="49.28849" lon="-0.13922">
        <ele>6</ele>
        <time>2021-10-06T20:27:37+02:00</time>
      </trkpt>
      <trkpt lat="49.28876" lon="-0.13922">
        <ele>7</ele>
        <time>2021-10-06T20:27:37+02:00</time>
      </trkpt>
      <trkpt lat="49.28899" lon="-0.13921">
        <ele>7</ele>
        <time>2021-10-06T20:27:37+02:00</time>
      </trkpt>
      <trkpt lat="49.28924" lon="-0.1392">
        <ele>8</ele>
        <time>2021-10-06T20:27:37+02:00</time>
      </trkpt>
      <trkpt lat="49.28951" lon="-0.13918">
        <ele>9</ele>
        <time>2021-10-06T20:27:37+02:00</time>
      </trkpt>
      <trkpt lat="49.28966" lon="-0.13889">
        <ele>8</ele>
        <time>2021-10-06T20:27:37+02:00</time>
      </trkpt>
      <trkpt lat="49.28977" lon="-0.13832">
        <ele>8</ele>
        <time>2021-10-06T20:27:37+02:00</time>
      </trkpt>
      <trkpt lat="49.28983" lon="-0.13798">
        <ele>8</ele>
        <time>2021-10-06T20:27:37+02:00</time>
      </trkpt>
      <trkpt lat="49.28989" lon="-0.13762">
        <ele>7</ele>
        <time>2021-10-06T20:27:37+02:00</time>
      </trkpt>
      <trkpt lat="49.28991" lon="-0.13725">
        <ele>8</ele>
        <time>2021-10-06T20:27:37+02:00</time>
      </trkpt>
      <trkpt lat="49.29" lon="-0.13694">
        <ele>9</ele>
        <time>2021-10-06T20:27:37+02:00</time>
      </trkpt>
      <trkpt lat="49.29008" lon="-0.13657">
        <ele>8</ele>
        <time>2021-10-06T20:27:37+02:00</time>
      </trkpt>
      <trkpt lat="49.29016" lon="-0.13617">
        <ele>8</ele>
        <time>2021-10-06T20:27:37+02:00</time>
      </trkpt>
      <trkpt lat="49.29024" lon="-0.13579">
        <ele>7</ele>
        <time>2021-10-06T20:27:37+02:00</time>
      </trkpt>
      <trkpt lat="49.2903" lon="-0.13542">
        <ele>7</ele>
        <time>2021-10-06T20:27:37+02:00</time>
      </trkpt>
      <trkpt lat="49.29037" lon="-0.13508">
        <ele>6</ele>
        <time>2021-10-06T20:27:37+02:00</time>
      </trkpt>
      <trkpt lat="49.29043" lon="-0.13473">
        <ele>6</ele>
        <time>2021-10-06T20:27:37+02:00</time>
      </trkpt>
      <trkpt lat="49.29049" lon="-0.13433">
        <ele>7</ele>
        <time>2021-10-06T20:27:37+02:00</time>
      </trkpt>
      <trkpt lat="49.29056" lon="-0.134">
        <ele>7</ele>
        <time>2021-10-06T20:27:37+02:00</time>
      </trkpt>
      <trkpt lat="49.29062" lon="-0.13366">
        <ele>6</ele>
        <time>2021-10-06T20:27:37+02:00</time>
      </trkpt>
      <trkpt lat="49.29068" lon="-0.13326">
        <ele>7</ele>
        <time>2021-10-06T20:27:37+02:00</time>
      </trkpt>
      <trkpt lat="49.29073" lon="-0.13292">
        <ele>7</ele>
        <time>2021-10-06T20:27:37+02:00</time>
      </trkpt>
      <trkpt lat="49.2908" lon="-0.13259">
        <ele>7</ele>
        <time>2021-10-06T20:27:37+02:00</time>
      </trkpt>
      <trkpt lat="49.29084" lon="-0.13223">
        <ele>8</ele>
        <time>2021-10-06T20:27:37+02:00</time>
      </trkpt>
      <trkpt lat="49.2909" lon="-0.13189">
        <ele>7</ele>
        <time>2021-10-06T20:27:37+02:00</time>
      </trkpt>
      <trkpt lat="49.29094" lon="-0.13155">
        <ele>9</ele>
        <time>2021-10-06T20:27:37+02:00</time>
      </trkpt>
      <trkpt lat="49.29098" lon="-0.1312">
        <ele>9</ele>
        <time>2021-10-06T20:27:37+02:00</time>
      </trkpt>
      <trkpt lat="49.29103" lon="-0.13083">
        <ele>9</ele>
        <time>2021-10-06T20:27:37+02:00</time>
      </trkpt>
      <trkpt lat="49.2911" lon="-0.13045">
        <ele>8</ele>
        <time>2021-10-06T20:27:37+02:00</time>
      </trkpt>
      <trkpt lat="49.29118" lon="-0.13009">
        <ele>8</ele>
        <time>2021-10-06T20:27:37+02:00</time>
      </trkpt>
      <trkpt lat="49.29125" lon="-0.12972">
        <ele>7</ele>
        <time>2021-10-06T20:27:37+02:00</time>
      </trkpt>
      <trkpt lat="49.29134" lon="-0.12933">
        <ele>7</ele>
        <time>2021-10-06T20:27:37+02:00</time>
      </trkpt>
      <trkpt lat="49.29142" lon="-0.12899">
        <ele>8</ele>
        <time>2021-10-06T20:27:37+02:00</time>
      </trkpt>
      <trkpt lat="49.29149" lon="-0.12865">
        <ele>7</ele>
        <time>2021-10-06T20:27:37+02:00</time>
      </trkpt>
      <trkpt lat="49.29159" lon="-0.12828">
        <ele>7</ele>
        <time>2021-10-06T20:27:37+02:00</time>
      </trkpt>
      <trkpt lat="49.29165" lon="-0.12793">
        <ele>7</ele>
        <time>2021-10-06T20:27:37+02:00</time>
      </trkpt>
      <trkpt lat="49.2917" lon="-0.12758">
        <ele>8</ele>
        <time>2021-10-06T20:27:37+02:00</time>
      </trkpt>
      <trkpt lat="49.29155" lon="-0.12732">
        <ele>9</ele>
        <time>2021-10-06T20:27:37+02:00</time>
      </trkpt>
      <trkpt lat="49.29132" lon="-0.12728">
        <ele>10</ele>
        <time>2021-10-06T20:27:37+02:00</time>
      </trkpt>
      <trkpt lat="49.29105" lon="-0.12719">
        <ele>9</ele>
        <time>2021-10-06T20:27:37+02:00</time>
      </trkpt>
      <trkpt lat="49.2908" lon="-0.12711">
        <ele>8</ele>
        <time>2021-10-06T20:27:37+02:00</time>
      </trkpt>
      <trkpt lat="49.29058" lon="-0.12705">
        <ele>7</ele>
        <time>2021-10-06T20:27:37+02:00</time>
      </trkpt>
      <trkpt lat="49.29033" lon="-0.12713">
        <ele>6</ele>
        <time>2021-10-06T20:27:37+02:00</time>
      </trkpt>
      <trkpt lat="49.29009" lon="-0.12705">
        <ele>5</ele>
        <time>2021-10-06T20:27:37+02:00</time>
      </trkpt>
      <trkpt lat="49.28985" lon="-0.12697">
        <ele>4</ele>
        <time>2021-10-06T20:27:37+02:00</time>
      </trkpt>
      <trkpt lat="49.28958" lon="-0.12689">
        <ele>4</ele>
        <time>2021-10-06T20:27:37+02:00</time>
      </trkpt>
      <trkpt lat="49.28934" lon="-0.12682">
        <ele>4</ele>
        <time>2021-10-06T20:27:37+02:00</time>
      </trkpt>
      <trkpt lat="49.28911" lon="-0.12675">
        <ele>4</ele>
        <time>2021-10-06T20:27:37+02:00</time>
      </trkpt>
      <trkpt lat="49.2889" lon="-0.12647">
        <ele>4</ele>
        <time>2021-10-06T20:27:37+02:00</time>
      </trkpt>
      <trkpt lat="49.28869" lon="-0.12635">
        <ele>4</ele>
        <time>2021-10-06T20:27:37+02:00</time>
      </trkpt>
      <trkpt lat="49.28851" lon="-0.12657">
        <ele>4</ele>
        <time>2021-10-06T20:27:37+02:00</time>
      </trkpt>
      <trkpt lat="49.28826" lon="-0.1265">
        <ele>4</ele>
        <time>2021-10-06T20:27:37+02:00</time>
      </trkpt>
      <trkpt lat="49.28802" lon="-0.12642">
        <ele>4</ele>
        <time>2021-10-06T20:27:37+02:00</time>
      </trkpt>
      <trkpt lat="49.28776" lon="-0.12634">
        <ele>4</ele>
        <time>2021-10-06T20:27:37+02:00</time>
      </trkpt>
      <trkpt lat="49.28753" lon="-0.12628">
        <ele>4</ele>
        <time>2021-10-06T20:27:37+02:00</time>
      </trkpt>
      <trkpt lat="49.28728" lon="-0.12618">
        <ele>4</ele>
        <time>2021-10-06T20:27:37+02:00</time>
      </trkpt>
      <trkpt lat="49.28722" lon="-0.12585">
        <ele>4</ele>
        <time>2021-10-06T20:27:37+02:00</time>
      </trkpt>
      <trkpt lat="49.28699" lon="-0.12584">
        <ele>4</ele>
        <time>2021-10-06T20:27:37+02:00</time>
      </trkpt>
      <trkpt lat="49.28674" lon="-0.12574">
        <ele>4</ele>
        <time>2021-10-06T20:27:37+02:00</time>
      </trkpt>
      <trkpt lat="49.28648" lon="-0.12568">
        <ele>4</ele>
        <time>2021-10-06T20:27:37+02:00</time>
      </trkpt>
      <trkpt lat="49.28625" lon="-0.12562">
        <ele>4</ele>
        <time>2021-10-06T20:27:37+02:00</time>
      </trkpt>
      <trkpt lat="49.28603" lon="-0.12553">
        <ele>4</ele>
        <time>2021-10-06T20:27:37+02:00</time>
      </trkpt>
      <trkpt lat="49.2858" lon="-0.12546">
        <ele>4</ele>
        <time>2021-10-06T20:27:37+02:00</time>
      </trkpt>
      <trkpt lat="49.28558" lon="-0.12536">
        <ele>4</ele>
        <time>2021-10-06T20:27:37+02:00</time>
      </trkpt>
      <trkpt lat="49.28581" lon="-0.12556">
        <ele>4</ele>
        <time>2021-10-06T20:27:37+02:00</time>
      </trkpt>
      <trkpt lat="49.28603" lon="-0.12567">
        <ele>4</ele>
        <time>2021-10-06T20:27:37+02:00</time>
      </trkpt>
      <trkpt lat="49.28627" lon="-0.12575">
        <ele>4</ele>
        <time>2021-10-06T20:27:37+02:00</time>
      </trkpt>
      <trkpt lat="49.2865" lon="-0.12585">
        <ele>4</ele>
        <time>2021-10-06T20:27:37+02:00</time>
      </trkpt>
      <trkpt lat="49.28674" lon="-0.12585">
        <ele>4</ele>
        <time>2021-10-06T20:27:37+02:00</time>
      </trkpt>
      <trkpt lat="49.28699" lon="-0.12592">
        <ele>4</ele>
        <time>2021-10-06T20:27:37+02:00</time>
      </trkpt>
      <trkpt lat="49.28723" lon="-0.12593">
        <ele>4</ele>
        <time>2021-10-06T20:27:37+02:00</time>
      </trkpt>
      <trkpt lat="49.28742" lon="-0.12619">
        <ele>4</ele>
        <time>2021-10-06T20:27:37+02:00</time>
      </trkpt>
      <trkpt lat="49.28767" lon="-0.12628">
        <ele>4</ele>
        <time>2021-10-06T20:27:37+02:00</time>
      </trkpt>
      <trkpt lat="49.28794" lon="-0.12637">
        <ele>4</ele>
        <time>2021-10-06T20:27:37+02:00</time>
      </trkpt>
      <trkpt lat="49.28817" lon="-0.12646">
        <ele>4</ele>
        <time>2021-10-06T20:27:37+02:00</time>
      </trkpt>
      <trkpt lat="49.28842" lon="-0.12654">
        <ele>4</ele>
        <time>2021-10-06T20:27:37+02:00</time>
      </trkpt>
      <trkpt lat="49.28865" lon="-0.12657">
        <ele>4</ele>
        <time>2021-10-06T20:27:37+02:00</time>
      </trkpt>
      <trkpt lat="49.28887" lon="-0.12669">
        <ele>4</ele>
        <time>2021-10-06T20:27:37+02:00</time>
      </trkpt>
      <trkpt lat="49.28912" lon="-0.12675">
        <ele>4</ele>
        <time>2021-10-06T20:27:37+02:00</time>
      </trkpt>
      <trkpt lat="49.28935" lon="-0.12674">
        <ele>4</ele>
        <time>2021-10-06T20:27:37+02:00</time>
      </trkpt>
      <trkpt lat="49.28961" lon="-0.1268">
        <ele>4</ele>
        <time>2021-10-06T20:27:37+02:00</time>
      </trkpt>
      <trkpt lat="49.28988" lon="-0.12686">
        <ele>4</ele>
        <time>2021-10-06T20:27:37+02:00</time>
      </trkpt>
      <trkpt lat="49.2901" lon="-0.12696">
        <ele>4</ele>
        <time>2021-10-06T20:27:37+02:00</time>
      </trkpt>
      <trkpt lat="49.29036" lon="-0.12705">
        <ele>5</ele>
        <time>2021-10-06T20:27:37+02:00</time>
      </trkpt>
      <trkpt lat="49.29059" lon="-0.12713">
        <ele>5</ele>
        <time>2021-10-06T20:27:37+02:00</time>
      </trkpt>
      <trkpt lat="49.29084" lon="-0.12708">
        <ele>7</ele>
        <time>2021-10-06T20:27:37+02:00</time>
      </trkpt>
      <trkpt lat="49.29094" lon="-0.12673">
        <ele>8</ele>
        <time>2021-10-06T20:27:37+02:00</time>
      </trkpt>
      <trkpt lat="49.29102" lon="-0.12639">
        <ele>8</ele>
        <time>2021-10-06T20:27:37+02:00</time>
      </trkpt>
      <trkpt lat="49.29092" lon="-0.12607">
        <ele>8</ele>
        <time>2021-10-06T20:27:37+02:00</time>
      </trkpt>
      <trkpt lat="49.29089" lon="-0.12572">
        <ele>8</ele>
        <time>2021-10-06T20:27:37+02:00</time>
      </trkpt>
      <trkpt lat="49.29092" lon="-0.12529">
        <ele>8</ele>
        <time>2021-10-06T20:27:37+02:00</time>
      </trkpt>
      <trkpt lat="49.291" lon="-0.12495">
        <ele>8</ele>
        <time>2021-10-06T20:27:37+02:00</time>
      </trkpt>
      <trkpt lat="49.29108" lon="-0.12457">
        <ele>8</ele>
        <time>2021-10-06T20:27:37+02:00</time>
      </trkpt>
      <trkpt lat="49.29116" lon="-0.12424">
        <ele>7</ele>
        <time>2021-10-06T20:27:37+02:00</time>
      </trkpt>
      <trkpt lat="49.29123" lon="-0.12386">
        <ele>6</ele>
        <time>2021-10-06T20:27:37+02:00</time>
      </trkpt>
      <trkpt lat="49.29134" lon="-0.12354">
        <ele>6</ele>
        <time>2021-10-06T20:27:37+02:00</time>
      </trkpt>
      <trkpt lat="49.29142" lon="-0.12321">
        <ele>6</ele>
        <time>2021-10-06T20:27:37+02:00</time>
      </trkpt>
      <trkpt lat="49.2915" lon="-0.12287">
        <ele>6</ele>
        <time>2021-10-06T20:27:37+02:00</time>
      </trkpt>
      <trkpt lat="49.29158" lon="-0.12249">
        <ele>5</ele>
        <time>2021-10-06T20:27:37+02:00</time>
      </trkpt>
      <trkpt lat="49.29158" lon="-0.12212">
        <ele>5</ele>
        <time>2021-10-06T20:27:37+02:00</time>
      </trkpt>
      <trkpt lat="49.29167" lon="-0.12172">
        <ele>5</ele>
        <time>2021-10-06T20:27:37+02:00</time>
      </trkpt>
      <trkpt lat="49.29176" lon="-0.12135">
        <ele>5</ele>
        <time>2021-10-06T20:27:37+02:00</time>
      </trkpt>
      <trkpt lat="49.29184" lon="-0.12102">
        <ele>5</ele>
        <time>2021-10-06T20:27:37+02:00</time>
      </trkpt>
      <trkpt lat="49.29193" lon="-0.12062">
        <ele>5</ele>
        <time>2021-10-06T20:27:37+02:00</time>
      </trkpt>
      <trkpt lat="49.292" lon="-0.12027">
        <ele>5</ele>
        <time>2021-10-06T20:27:37+02:00</time>
      </trkpt>
      <trkpt lat="49.29208" lon="-0.11993">
        <ele>5</ele>
        <time>2021-10-06T20:27:37+02:00</time>
      </trkpt>
      <trkpt lat="49.29217" lon="-0.11953">
        <ele>4</ele>
        <time>2021-10-06T20:27:37+02:00</time>
      </trkpt>
      <trkpt lat="49.29226" lon="-0.11921">
        <ele>4</ele>
        <time>2021-10-06T20:27:37+02:00</time>
      </trkpt>
      <trkpt lat="49.29238" lon="-0.11889">
        <ele>4</ele>
        <time>2021-10-06T20:27:37+02:00</time>
      </trkpt>
      <trkpt lat="49.2925" lon="-0.11858">
        <ele>4</ele>
        <time>2021-10-06T20:27:37+02:00</time>
      </trkpt>
      <trkpt lat="49.29261" lon="-0.11826">
        <ele>4</ele>
        <time>2021-10-06T20:27:37+02:00</time>
      </trkpt>
      <trkpt lat="49.2927" lon="-0.11795">
        <ele>4</ele>
        <time>2021-10-06T20:27:37+02:00</time>
      </trkpt>
      <trkpt lat="49.29278" lon="-0.1176">
        <ele>4</ele>
        <time>2021-10-06T20:27:37+02:00</time>
      </trkpt>
      <trkpt lat="49.29286" lon="-0.11727">
        <ele>4</ele>
        <time>2021-10-06T20:27:37+02:00</time>
      </trkpt>
      <trkpt lat="49.29293" lon="-0.11693">
        <ele>4</ele>
        <time>2021-10-06T20:27:37+02:00</time>
      </trkpt>
      <trkpt lat="49.293" lon="-0.11659">
        <ele>4</ele>
        <time>2021-10-06T20:27:37+02:00</time>
      </trkpt>
      <trkpt lat="49.29304" lon="-0.11618">
        <ele>4</ele>
        <time>2021-10-06T20:27:37+02:00</time>
      </trkpt>
      <trkpt lat="49.29307" lon="-0.11583">
        <ele>4</ele>
        <time>2021-10-06T20:27:37+02:00</time>
      </trkpt>
      <trkpt lat="49.29299" lon="-0.11545">
        <ele>4</ele>
        <time>2021-10-06T20:27:37+02:00</time>
      </trkpt>
      <trkpt lat="49.29308" lon="-0.1151">
        <ele>4</ele>
        <time>2021-10-06T20:27:37+02:00</time>
      </trkpt>
      <trkpt lat="49.2932" lon="-0.11477">
        <ele>4</ele>
        <time>2021-10-06T20:27:37+02:00</time>
      </trkpt>
      <trkpt lat="49.29324" lon="-0.11442">
        <ele>5</ele>
        <time>2021-10-06T20:27:37+02:00</time>
      </trkpt>
      <trkpt lat="49.29326" lon="-0.11406">
        <ele>5</ele>
        <time>2021-10-06T20:27:37+02:00</time>
      </trkpt>
      <trkpt lat="49.29335" lon="-0.1137">
        <ele>5</ele>
        <time>2021-10-06T20:27:37+02:00</time>
      </trkpt>
      <trkpt lat="49.29353" lon="-0.11343">
        <ele>5</ele>
        <time>2021-10-06T20:27:37+02:00</time>
      </trkpt>
      <trkpt lat="49.29373" lon="-0.11325">
        <ele>5</ele>
        <time>2021-10-06T20:27:37+02:00</time>
      </trkpt>
      <trkpt lat="49.29395" lon="-0.11313">
        <ele>5</ele>
        <time>2021-10-06T20:27:37+02:00</time>
      </trkpt>
      <trkpt lat="49.29419" lon="-0.11309">
        <ele>5</ele>
        <time>2021-10-06T20:27:37+02:00</time>
      </trkpt>
      <trkpt lat="49.29429" lon="-0.11271">
        <ele>5</ele>
        <time>2021-10-06T20:27:37+02:00</time>
      </trkpt>
      <trkpt lat="49.2944" lon="-0.11237">
        <ele>5</ele>
        <time>2021-10-06T20:27:37+02:00</time>
      </trkpt>
      <trkpt lat="49.29446" lon="-0.11202">
        <ele>5</ele>
        <time>2021-10-06T20:27:37+02:00</time>
      </trkpt>
      <trkpt lat="49.29453" lon="-0.11167">
        <ele>5</ele>
        <time>2021-10-06T20:27:37+02:00</time>
      </trkpt>
      <trkpt lat="49.29462" lon="-0.11133">
        <ele>6</ele>
        <time>2021-10-06T20:27:37+02:00</time>
      </trkpt>
      <trkpt lat="49.29472" lon="-0.11101">
        <ele>6</ele>
        <time>2021-10-06T20:27:37+02:00</time>
      </trkpt>
      <trkpt lat="49.29478" lon="-0.11067">
        <ele>6</ele>
        <time>2021-10-06T20:27:37+02:00</time>
      </trkpt>
      <trkpt lat="49.29483" lon="-0.11028">
        <ele>6</ele>
        <time>2021-10-06T20:27:37+02:00</time>
      </trkpt>
      <trkpt lat="49.29492" lon="-0.10991">
        <ele>6</ele>
        <time>2021-10-06T20:27:37+02:00</time>
      </trkpt>
      <trkpt lat="49.29499" lon="-0.10951">
        <ele>7</ele>
        <time>2021-10-06T20:27:37+02:00</time>
      </trkpt>
      <trkpt lat="49.29504" lon="-0.10911">
        <ele>7</ele>
        <time>2021-10-06T20:27:37+02:00</time>
      </trkpt>
      <trkpt lat="49.29513" lon="-0.10872">
        <ele>7</ele>
        <time>2021-10-06T20:27:37+02:00</time>
      </trkpt>
      <trkpt lat="49.29521" lon="-0.10832">
        <ele>7</ele>
        <time>2021-10-06T20:27:37+02:00</time>
      </trkpt>
      <trkpt lat="49.29529" lon="-0.10791">
        <ele>7</ele>
        <time>2021-10-06T20:27:37+02:00</time>
      </trkpt>
      <trkpt lat="49.29537" lon="-0.10757">
        <ele>7</ele>
        <time>2021-10-06T20:27:37+02:00</time>
      </trkpt>
      <trkpt lat="49.29545" lon="-0.10718">
        <ele>7</ele>
        <time>2021-10-06T20:27:37+02:00</time>
      </trkpt>
      <trkpt lat="49.29552" lon="-0.10683">
        <ele>7</ele>
        <time>2021-10-06T20:27:37+02:00</time>
      </trkpt>
      <trkpt lat="49.29559" lon="-0.10645">
        <ele>6</ele>
        <time>2021-10-06T20:27:37+02:00</time>
      </trkpt>
      <trkpt lat="49.29568" lon="-0.10611">
        <ele>6</ele>
        <time>2021-10-06T20:27:37+02:00</time>
      </trkpt>
      <trkpt lat="49.29568" lon="-0.10572">
        <ele>6</ele>
        <time>2021-10-06T20:27:37+02:00</time>
      </trkpt>
      <trkpt lat="49.29592" lon="-0.10561">
        <ele>6</ele>
        <time>2021-10-06T20:27:37+02:00</time>
      </trkpt>
      <trkpt lat="49.29616" lon="-0.10564">
        <ele>5</ele>
        <time>2021-10-06T20:27:37+02:00</time>
      </trkpt>
      <trkpt lat="49.29599" lon="-0.10589">
        <ele>6</ele>
        <time>2021-10-06T20:27:37+02:00</time>
      </trkpt>
      <trkpt lat="49.29573" lon="-0.10593">
        <ele>6</ele>
        <time>2021-10-06T20:27:37+02:00</time>
      </trkpt>
      <trkpt lat="49.29547" lon="-0.10595">
        <ele>6</ele>
        <time>2021-10-06T20:27:37+02:00</time>
      </trkpt>
      <trkpt lat="49.29527" lon="-0.10616">
        <ele>6</ele>
        <time>2021-10-06T20:27:37+02:00</time>
      </trkpt>
      <trkpt lat="49.29502" lon="-0.10627">
        <ele>6</ele>
        <time>2021-10-06T20:27:37+02:00</time>
      </trkpt>
      <trkpt lat="49.29475" lon="-0.1063">
        <ele>6</ele>
        <time>2021-10-06T20:27:37+02:00</time>
      </trkpt>
      <trkpt lat="49.29446" lon="-0.10647">
        <ele>6</ele>
        <time>2021-10-06T20:27:37+02:00</time>
      </trkpt>
      <trkpt lat="49.29422" lon="-0.10637">
        <ele>6</ele>
        <time>2021-10-06T20:27:37+02:00</time>
      </trkpt>
      <trkpt lat="49.29397" lon="-0.1065">
        <ele>7</ele>
        <time>2021-10-06T20:27:37+02:00</time>
      </trkpt>
      <trkpt lat="49.29374" lon="-0.10655">
        <ele>6</ele>
        <time>2021-10-06T20:27:37+02:00</time>
      </trkpt>
      <trkpt lat="49.29354" lon="-0.10674">
        <ele>7</ele>
        <time>2021-10-06T20:27:37+02:00</time>
      </trkpt>
      <trkpt lat="49.29326" lon="-0.10684">
        <ele>6</ele>
        <time>2021-10-06T20:27:37+02:00</time>
      </trkpt>
      <trkpt lat="49.29304" lon="-0.10694">
        <ele>6</ele>
        <time>2021-10-06T20:27:37+02:00</time>
      </trkpt>
      <trkpt lat="49.29281" lon="-0.10704">
        <ele>6</ele>
        <time>2021-10-06T20:27:37+02:00</time>
      </trkpt>
      <trkpt lat="49.29259" lon="-0.10712">
        <ele>6</ele>
        <time>2021-10-06T20:27:37+02:00</time>
      </trkpt>
      <trkpt lat="49.29243" lon="-0.10736">
        <ele>5</ele>
        <time>2021-10-06T20:27:37+02:00</time>
      </trkpt>
      <trkpt lat="49.29209" lon="-0.10764">
        <ele>5</ele>
        <time>2021-10-06T20:27:37+02:00</time>
      </trkpt>
      <trkpt lat="49.29159" lon="-0.1072">
        <ele>5</ele>
        <time>2021-10-06T20:27:37+02:00</time>
      </trkpt>
      <trkpt lat="49.29132" lon="-0.1072">
        <ele>5</ele>
        <time>2021-10-06T20:27:37+02:00</time>
      </trkpt>
      <trkpt lat="49.29107" lon="-0.10727">
        <ele>5</ele>
        <time>2021-10-06T20:27:37+02:00</time>
      </trkpt>
      <trkpt lat="49.29082" lon="-0.10728">
        <ele>5</ele>
        <time>2021-10-06T20:27:37+02:00</time>
      </trkpt>
      <trkpt lat="49.29055" lon="-0.10727">
        <ele>5</ele>
        <time>2021-10-06T20:27:37+02:00</time>
      </trkpt>
      <trkpt lat="49.29028" lon="-0.10721">
        <ele>5</ele>
        <time>2021-10-06T20:27:37+02:00</time>
      </trkpt>
      <trkpt lat="49.29006" lon="-0.10712">
        <ele>5</ele>
        <time>2021-10-06T20:27:37+02:00</time>
      </trkpt>
      <trkpt lat="49.28983" lon="-0.10704">
        <ele>4</ele>
        <time>2021-10-06T20:27:37+02:00</time>
      </trkpt>
      <trkpt lat="49.28961" lon="-0.10695">
        <ele>4</ele>
        <time>2021-10-06T20:27:37+02:00</time>
      </trkpt>
      <trkpt lat="49.28937" lon="-0.10702">
        <ele>4</ele>
        <time>2021-10-06T20:27:37+02:00</time>
      </trkpt>
      <trkpt lat="49.28915" lon="-0.10713">
        <ele>5</ele>
        <time>2021-10-06T20:27:37+02:00</time>
      </trkpt>
      <trkpt lat="49.28897" lon="-0.10735">
        <ele>5</ele>
        <time>2021-10-06T20:27:37+02:00</time>
      </trkpt>
      <trkpt lat="49.2888" lon="-0.10765">
        <ele>5</ele>
        <time>2021-10-06T20:27:37+02:00</time>
      </trkpt>
      <trkpt lat="49.28863" lon="-0.10793">
        <ele>5</ele>
        <time>2021-10-06T20:27:37+02:00</time>
      </trkpt>
      <trkpt lat="49.28849" lon="-0.10824">
        <ele>5</ele>
        <time>2021-10-06T20:27:37+02:00</time>
      </trkpt>
      <trkpt lat="49.28834" lon="-0.10852">
        <ele>4</ele>
        <time>2021-10-06T20:27:37+02:00</time>
      </trkpt>
      <trkpt lat="49.28821" lon="-0.10888">
        <ele>5</ele>
        <time>2021-10-06T20:27:37+02:00</time>
      </trkpt>
      <trkpt lat="49.2881" lon="-0.10918">
        <ele>5</ele>
        <time>2021-10-06T20:27:37+02:00</time>
      </trkpt>
      <trkpt lat="49.28795" lon="-0.10947">
        <ele>5</ele>
        <time>2021-10-06T20:27:37+02:00</time>
      </trkpt>
      <trkpt lat="49.28782" lon="-0.10977">
        <ele>4</ele>
        <time>2021-10-06T20:27:37+02:00</time>
      </trkpt>
      <trkpt lat="49.28765" lon="-0.1101">
        <ele>3</ele>
        <time>2021-10-06T20:27:37+02:00</time>
      </trkpt>
      <trkpt lat="49.28752" lon="-0.11038">
        <ele>2</ele>
        <time>2021-10-06T20:27:37+02:00</time>
      </trkpt>
      <trkpt lat="49.28735" lon="-0.11072">
        <ele>2</ele>
        <time>2021-10-06T20:27:37+02:00</time>
      </trkpt>
      <trkpt lat="49.28717" lon="-0.11101">
        <ele>2</ele>
        <time>2021-10-06T20:27:37+02:00</time>
      </trkpt>
      <trkpt lat="49.28699" lon="-0.11128">
        <ele>2</ele>
        <time>2021-10-06T20:27:37+02:00</time>
      </trkpt>
      <trkpt lat="49.2868" lon="-0.11155">
        <ele>2</ele>
        <time>2021-10-06T20:27:37+02:00</time>
      </trkpt>
      <trkpt lat="49.28649" lon="-0.11223">
        <ele>2</ele>
        <time>2021-10-06T20:27:37+02:00</time>
      </trkpt>
      <trkpt lat="49.28626" lon="-0.11228">
        <ele>3</ele>
        <time>2021-10-06T20:27:37+02:00</time>
      </trkpt>
      <trkpt lat="49.28601" lon="-0.11218">
        <ele>6</ele>
        <time>2021-10-06T20:27:37+02:00</time>
      </trkpt>
      <trkpt lat="49.28584" lon="-0.11194">
        <ele>2</ele>
        <time>2021-10-06T20:27:37+02:00</time>
      </trkpt>
      <trkpt lat="49.28575" lon="-0.11159">
        <ele>2</ele>
        <time>2021-10-06T20:27:37+02:00</time>
      </trkpt>
      <trkpt lat="49.28565" lon="-0.1112">
        <ele>2</ele>
        <time>2021-10-06T20:27:37+02:00</time>
      </trkpt>
      <trkpt lat="49.28554" lon="-0.11081">
        <ele>3</ele>
        <time>2021-10-06T20:27:37+02:00</time>
      </trkpt>
      <trkpt lat="49.28544" lon="-0.11044">
        <ele>5</ele>
        <time>2021-10-06T20:27:37+02:00</time>
      </trkpt>
      <trkpt lat="49.28535" lon="-0.11011">
        <ele>7</ele>
        <time>2021-10-06T20:27:37+02:00</time>
      </trkpt>
      <trkpt lat="49.28529" lon="-0.10978">
        <ele>6</ele>
        <time>2021-10-06T20:27:37+02:00</time>
      </trkpt>
      <trkpt lat="49.28522" lon="-0.10938">
        <ele>6</ele>
        <time>2021-10-06T20:27:37+02:00</time>
      </trkpt>
      <trkpt lat="49.2852" lon="-0.10904">
        <ele>5</ele>
        <time>2021-10-06T20:27:37+02:00</time>
      </trkpt>
      <trkpt lat="49.28521" lon="-0.10864">
        <ele>5</ele>
        <time>2021-10-06T20:27:37+02:00</time>
      </trkpt>
      <trkpt lat="49.28529" lon="-0.10832">
        <ele>5</ele>
        <time>2021-10-06T20:27:37+02:00</time>
      </trkpt>
      <trkpt lat="49.28552" lon="-0.10828">
        <ele>5</ele>
        <time>2021-10-06T20:27:37+02:00</time>
      </trkpt>
      <trkpt lat="49.28577" lon="-0.10822">
        <ele>5</ele>
        <time>2021-10-06T20:27:37+02:00</time>
      </trkpt>
      <trkpt lat="49.28599" lon="-0.10811">
        <ele>5</ele>
        <time>2021-10-06T20:27:37+02:00</time>
      </trkpt>
      <trkpt lat="49.28615" lon="-0.10783">
        <ele>5</ele>
        <time>2021-10-06T20:27:37+02:00</time>
      </trkpt>
      <trkpt lat="49.28627" lon="-0.10752">
        <ele>4</ele>
        <time>2021-10-06T20:27:37+02:00</time>
      </trkpt>
      <trkpt lat="49.28649" lon="-0.10737">
        <ele>4</ele>
        <time>2021-10-06T20:27:37+02:00</time>
      </trkpt>
      <trkpt lat="49.28651" lon="-0.10772">
        <ele>4</ele>
        <time>2021-10-06T20:27:37+02:00</time>
      </trkpt>
    </trkseg>
  </trk>
</gpx>